GFSSGP_prec_precacc_021.txt.gz
Total_Precipitation_Accumulation
0.00 0.00 0.00 0.00 0.00 0.00 0.00 0.00 0.00 0.00 0.02 0.03 0.04 0.04 0.04 0.06 0.20 0.36 0.13 0.23 0.20 0.13 0.06 0.05 0.13 0.09 0.00 0.00 0.00 0.00 0.00 0.00 0.00 0.00 0.00 0.00 0.00 0.00 0.00 0.00 0.00 0.00 0.00 0.00 0.00 0.00 0.00 0.00 0.00
0.00 0.00 0.00 0.00 0.00 0.00 0.00 0.00 0.00 0.01 0.06 0.06 0.04 0.05 0.08 0.20 0.15 0.23 0.15 0.16 0.12 0.16 0.10 0.04 0.15 0.21 0.08 0.05 0.05 0.04 0.01 0.00 0.00 0.00 0.00 0.00 0.00 0.00 0.00 0.00 0.00 0.00 0.00 0.00 0.00 0.00 0.00 0.00 0.00
0.00 0.00 0.00 0.00 0.00 0.00 0.00 0.00 0.00 0.00 0.01 0.03 0.08 0.07 0.13 0.22 0.19 0.27 0.17 0.26 0.27 0.36 0.27 0.14 0.11 0.23 0.25 0.18 0.18 0.12 0.04 0.00 0.00 0.00 0.00 0.00 0.00 0.00 0.00 0.00 0.00 0.00 0.00 0.00 0.00 0.00 0.00 0.00 0.00
0.00 0.00 0.00 0.00 0.00 0.00 0.00 0.01 0.01 0.02 0.04 0.01 0.03 0.06 0.08 0.15 0.25 0.24 0.32 0.62 0.71 0.69 0.57 0.30 0.16 0.26 0.32 0.33 0.23 0.08 0.01 0.00 0.00 0.00 0.00 0.00 0.00 0.00 0.00 0.00 0.00 0.00 0.00 0.00 0.00 0.00 0.00 0.00 0.00
0.00 0.00 0.00 0.00 0.00 0.00 0.00 0.01 0.01 0.10 0.22 0.17 0.04 0.01 0.03 0.02 0.14 0.25 0.77 1.10 1.40 1.16 0.99 0.39 0.56 0.56 0.44 0.38 0.18 0.05 0.00 0.00 0.00 0.00 0.00 0.00 0.00 0.00 0.00 0.00 0.00 0.00 0.00 0.00 0.00 0.00 0.00 0.00 0.00
0.00 0.00 0.00 0.00 0.00 0.00 0.00 0.01 0.09 0.12 0.17 0.13 0.05 0.04 0.10 0.18 0.20 0.55 0.74 1.30 2.03 0.94 0.61 0.54 1.15 1.10 0.56 0.26 0.08 0.00 0.00 0.00 0.00 0.00 0.00 0.00 0.00 0.00 0.00 0.00 0.00 0.00 0.00 0.00 0.00 0.00 0.00 0.00 0.00
0.00 0.00 0.00 0.00 0.00 0.00 0.02 0.06 0.18 0.12 0.04 0.01 0.11 0.30 0.49 0.21 0.28 0.54 1.05 0.82 1.14 1.26 0.95 0.79 0.94 0.81 0.28 0.08 0.00 0.00 0.00 0.00 0.00 0.00 0.00 0.00 0.00 0.00 0.00 0.00 0.00 0.00 0.00 0.00 0.00 0.00 0.00 0.00 0.00
0.00 0.00 0.00 0.00 0.00 0.06 0.11 0.19 0.08 0.03 0.03 0.17 0.04 0.26 0.12 0.56 0.42 0.36 0.54 0.66 0.89 2.80 2.09 1.57 0.98 0.42 0.16 0.02 0.00 0.00 0.00 0.00 0.00 0.00 0.00 0.00 0.00 0.00 0.00 0.00 0.00 0.00 0.00 0.00 0.00 0.00 0.00 0.00 0.00
0.00 0.00 0.00 0.00 0.01 0.15 0.21 0.06 0.04 0.05 0.01 0.08 0.25 0.37 0.25 0.57 0.27 0.32 0.38 0.89 0.97 1.47 1.23 0.81 0.50 0.37 0.08 0.02 0.01 0.00 0.00 0.00 0.00 0.00 0.00 0.00 0.00 0.00 0.00 0.00 0.00 0.00 0.00 0.00 0.00 0.00 0.00 0.00 0.00
0.00 0.00 0.00 0.00 0.06 0.24 0.13 0.03 0.02 0.03 0.02 0.05 0.15 0.55 0.37 0.20 0.27 0.39 0.44 0.38 0.53 0.55 0.61 0.38 0.14 0.05 0.06 0.00 0.00 0.00 0.00 0.00 0.00 0.00 0.00 0.00 0.00 0.00 0.00 0.00 0.00 0.00 0.00 0.00 0.00 0.00 0.00 0.00 0.00
0.00 0.00 0.00 0.02 0.11 0.04 0.02 0.06 0.02 0.09 0.10 0.10 0.67 0.27 0.21 0.26 0.38 0.47 0.74 0.37 0.13 0.14 0.11 0.14 0.08 0.02 0.01 0.00 0.00 0.00 0.00 0.00 0.00 0.00 0.00 0.00 0.00 0.00 0.00 0.00 0.01 0.00 0.00 0.00 0.00 0.00 0.00 0.00 0.00
0.00 0.00 0.00 0.01 0.01 0.01 0.00 0.00 0.02 0.14 0.53 0.20 0.22 0.26 0.16 0.23 0.27 0.16 0.14 0.10 0.04 0.04 0.06 0.03 0.01 0.01 0.00 0.00 0.00 0.00 0.00 0.01 0.04 0.01 0.00 0.01 0.01 0.00 0.00 0.00 0.00 0.00 0.00 0.00 0.00 0.00 0.00 0.00 0.00
0.00 0.00 0.00 0.01 0.04 0.03 0.00 0.03 0.05 0.01 0.03 0.08 0.11 0.08 0.10 0.04 0.06 0.01 0.03 0.01 0.00 0.00 0.00 0.00 0.00 0.00 0.00 0.00 0.00 0.00 0.03 0.04 0.06 0.05 0.04 0.02 0.01 0.00 0.00 0.00 0.00 0.00 0.00 0.00 0.00 0.00 0.00 0.00 0.00
0.00 0.00 0.00 0.00 0.00 0.01 0.01 0.01 0.00 0.02 0.05 0.05 0.03 0.02 0.00 0.00 0.00 0.00 0.01 0.01 0.00 0.00 0.00 0.00 0.00 0.00 0.00 0.00 0.01 0.07 0.15 0.21 0.20 0.18 0.15 0.13 0.08 0.05 0.03 0.01 0.00 0.01 0.01 0.00 0.00 0.00 0.00 0.00 0.00
0.00 0.00 0.00 0.00 0.00 0.00 0.01 0.00 0.00 0.01 0.02 0.00 0.00 0.01 0.00 0.00 0.00 0.00 0.00 0.00 0.00 0.00 0.00 0.03 0.07 0.04 0.03 0.05 0.09 0.28 0.31 0.21 0.12 0.20 0.32 0.26 0.12 0.06 0.02 0.01 0.01 0.01 0.00 0.00 0.00 0.00 0.00 0.00 0.00
0.00 0.00 0.00 0.00 0.00 0.00 0.00 0.00 0.00 0.00 0.00 0.00 0.00 0.00 0.00 0.00 0.00 0.00 0.00 0.00 0.00 0.00 0.01 0.08 0.21 0.26 0.29 0.37 0.38 0.72 0.49 0.17 0.13 0.18 0.16 0.07 0.04 0.03 0.01 0.00 0.00 0.00 0.00 0.00 0.00 0.00 0.00 0.00 0.00
0.00 0.00 0.00 0.00 0.00 0.00 0.00 0.00 0.00 0.01 0.04 0.04 0.01 0.01 0.00 0.00 0.00 0.00 0.03 0.01 0.04 0.01 0.04 0.10 0.32 0.66 0.75 0.56 0.84 0.55 0.11 0.02 0.03 0.05 0.03 0.02 0.01 0.00 0.00 0.00 0.00 0.00 0.00 0.00 0.00 0.00 0.00 0.00 0.00
0.00 0.00 0.00 0.00 0.00 0.00 0.00 0.00 0.00 0.00 0.04 0.26 0.05 0.03 0.02 0.00 0.01 0.03 0.07 0.07 0.07 0.03 0.09 0.37 0.47 0.74 0.72 0.42 0.29 0.11 0.04 0.02 0.02 0.02 0.01 0.00 0.00 0.00 0.00 0.00 0.00 0.00 0.00 0.00 0.00 0.00 0.00 0.00 0.00
0.00 0.00 0.00 0.00 0.00 0.00 0.00 0.00 0.00 0.00 0.00 0.02 0.02 0.06 0.01 0.00 0.03 0.05 0.07 0.09 0.06 0.05 0.15 0.38 0.46 0.59 0.29 0.08 0.04 0.04 0.04 0.04 0.04 0.01 0.00 0.00 0.00 0.00 0.00 0.00 0.00 0.00 0.00 0.00 0.00 0.00 0.00 0.00 0.00
0.00 0.00 0.00 0.00 0.00 0.00 0.00 0.00 0.00 0.00 0.00 0.00 0.01 0.11 0.03 0.00 0.01 0.02 0.03 0.03 0.04 0.10 0.33 0.41 0.21 0.12 0.01 0.01 0.01 0.03 0.05 0.02 0.00 0.00 0.00 0.00 0.00 0.00 0.00 0.00 0.00 0.00 0.00 0.00 0.00 0.00 0.00 0.00 0.00
0.00 0.00 0.00 0.00 0.00 0.00 0.00 0.00 0.00 0.00 0.00 0.00 0.00 0.00 0.00 0.00 0.02 0.03 0.03 0.03 0.01 0.02 0.14 0.12 0.02 0.01 0.00 0.01 0.02 0.01 0.00 0.00 0.00 0.00 0.00 0.00 0.00 0.00 0.00 0.00 0.00 0.00 0.00 0.00 0.00 0.00 0.00 0.00 0.00
0.00 0.00 0.00 0.00 0.00 0.00 0.00 0.00 0.00 0.00 0.00 0.00 0.00 0.00 0.00 0.00 0.00 0.00 0.00 0.00 0.01 0.01 0.07 0.04 0.00 0.00 0.00 0.00 0.00 0.00 0.00 0.00 0.00 0.00 0.00 0.00 0.00 0.00 0.00 0.00 0.00 0.00 0.00 0.00 0.00 0.00 0.00 0.00 0.00
0.00 0.00 0.00 0.00 0.00 0.04 0.02 0.00 0.03 0.05 0.00 0.00 0.00 0.00 0.00 0.00 0.00 0.00 0.00 0.00 0.00 0.00 0.00 0.02 0.00 0.00 0.00 0.00 0.00 0.00 0.00 0.00 0.00 0.00 0.00 0.00 0.00 0.00 0.00 0.00 0.00 0.00 0.00 0.00 0.00 0.00 0.00 0.00 0.00
0.00 0.00 0.00 0.00 0.00 0.01 0.01 0.01 0.00 0.00 0.00 0.01 0.00 0.00 0.00 0.00 0.00 0.00 0.00 0.01 0.00 0.00 0.00 0.00 0.00 0.00 0.00 0.00 0.00 0.00 0.00 0.00 0.00 0.00 0.00 0.00 0.00 0.00 0.00 0.00 0.00 0.00 0.00 0.00 0.00 0.00 0.00 0.00 0.00
0.00 0.00 0.00 0.03 0.00 0.00 0.00 0.01 0.01 0.01 0.04 0.08 0.10 0.00 0.00 0.00 0.00 0.00 0.02 0.02 0.00 0.00 0.00 0.00 0.00 0.00 0.00 0.00 0.00 0.00 0.00 0.00 0.00 0.00 0.00 0.00 0.00 0.00 0.00 0.00 0.00 0.00 0.00 0.00 0.00 0.00 0.00 0.01 0.00
0.00 0.00 0.00 0.06 0.06 0.01 0.02 0.01 0.00 0.00 0.00 0.00 0.00 0.00 0.00 0.00 0.00 0.00 0.00 0.00 0.00 0.00 0.00 0.00 0.00 0.00 0.00 0.00 0.00 0.00 0.00 0.00 0.00 0.00 0.00 0.00 0.00 0.00 0.00 0.00 0.00 0.00 0.00 0.00 0.01 0.01 0.02 0.01 0.00
0.00 0.00 0.00 0.01 0.04 0.01 0.01 0.00 0.00 0.00 0.00 0.00 0.00 0.00 0.00 0.00 0.00 0.00 0.00 0.00 0.00 0.00 0.00 0.00 0.00 0.00 0.00 0.00 0.00 0.00 0.00 0.00 0.00 0.00 0.00 0.00 0.00 0.00 0.00 0.00 0.01 0.02 0.01 0.00 0.02 0.02 0.01 0.01 0.01
0.00 0.00 0.00 0.00 0.00 0.00 0.00 0.00 0.00 0.00 0.00 0.00 0.00 0.00 0.00 0.00 0.00 0.00 0.00 0.00 0.00 0.00 0.00 0.00 0.00 0.00 0.00 0.00 0.00 0.00 0.00 0.00 0.00 0.00 0.00 0.00 0.00 0.00 0.00 0.01 0.02 0.01 0.02 0.03 0.02 0.01 0.00 0.00 0.00
0.00 0.00 0.00 0.00 0.00 0.00 0.00 0.00 0.00 0.00 0.00 0.00 0.00 0.00 0.00 0.00 0.00 0.00 0.00 0.00 0.00 0.00 0.00 0.00 0.00 0.00 0.00 0.00 0.00 0.00 0.00 0.00 0.00 0.00 0.00 0.00 0.00 0.00 0.00 0.00 0.01 0.01 0.01 0.00 0.01 0.02 0.00 0.01 0.01
0.00 0.01 0.02 0.00 0.00 0.00 0.00 0.00 0.00 0.00 0.00 0.00 0.00 0.00 0.00 0.00 0.00 0.00 0.00 0.00 0.00 0.00 0.00 0.00 0.00 0.00 0.00 0.00 0.00 0.00 0.00 0.00 0.00 0.00 0.00 0.00 0.00 0.00 0.00 0.00 0.01 0.00 0.00 0.01 0.02 0.01 0.01 0.01 0.01

GFSSGP_prec_precacc_024.txt.gz
Total_Precipitation_Accumulation
0.00 0.00 0.00 0.00 0.00 0.00 0.00 0.00 0.00 0.00 0.02 0.03 0.04 0.04 0.04 0.06 0.20 0.36 0.14 0.25 0.22 0.13 0.06 0.05 0.13 0.09 0.00 0.00 0.00 0.00 0.00 0.00 0.00 0.00 0.00 0.00 0.00 0.00 0.00 0.00 0.00 0.00 0.00 0.00 0.00 0.00 0.00 0.00 0.00
0.00 0.00 0.00 0.00 0.00 0.00 0.00 0.00 0.00 0.01 0.07 0.06 0.04 0.05 0.08 0.20 0.15 0.23 0.16 0.23 0.17 0.16 0.10 0.04 0.15 0.22 0.09 0.05 0.05 0.04 0.01 0.00 0.00 0.00 0.00 0.00 0.00 0.00 0.00 0.00 0.00 0.00 0.00 0.00 0.00 0.00 0.00 0.00 0.00
0.00 0.00 0.00 0.00 0.00 0.00 0.00 0.00 0.01 0.01 0.02 0.04 0.08 0.07 0.13 0.23 0.20 0.28 0.18 0.33 0.35 0.38 0.27 0.14 0.12 0.24 0.27 0.21 0.19 0.12 0.04 0.00 0.00 0.00 0.00 0.00 0.00 0.00 0.00 0.00 0.00 0.00 0.00 0.00 0.00 0.00 0.00 0.00 0.00
0.00 0.00 0.00 0.00 0.00 0.00 0.00 0.01 0.03 0.04 0.05 0.02 0.03 0.06 0.08 0.15 0.29 0.29 0.39 0.70 0.79 0.70 0.57 0.30 0.17 0.30 0.41 0.37 0.23 0.08 0.01 0.00 0.00 0.00 0.00 0.00 0.00 0.00 0.00 0.00 0.00 0.00 0.00 0.00 0.00 0.00 0.00 0.00 0.00
0.00 0.00 0.00 0.00 0.00 0.00 0.00 0.01 0.06 0.17 0.28 0.22 0.05 0.02 0.03 0.04 0.20 0.43 0.92 1.25 1.49 1.17 1.00 0.40 0.61 0.68 0.64 0.44 0.18 0.05 0.00 0.00 0.00 0.00 0.00 0.00 0.00 0.00 0.00 0.00 0.00 0.00 0.00 0.00 0.00 0.00 0.00 0.00 0.00
0.00 0.00 0.00 0.00 0.00 0.00 0.01 0.05 0.15 0.20 0.23 0.15 0.06 0.04 0.11 0.19 0.22 0.65 1.06 1.85 2.47 1.05 0.64 0.59 1.21 1.74 1.03 0.32 0.08 0.00 0.00 0.00 0.00 0.00 0.00 0.00 0.00 0.00 0.00 0.00 0.00 0.00 0.00 0.00 0.00 0.00 0.00 0.00 0.00
0.00 0.00 0.00 0.00 0.00 0.00 0.02 0.06 0.19 0.12 0.05 0.02 0.11 0.30 0.53 0.23 0.31 0.58 1.31 2.19 3.05 2.69 1.82 1.64 1.06 1.11 0.56 0.11 0.00 0.00 0.00 0.00 0.00 0.00 0.00 0.00 0.00 0.00 0.00 0.00 0.00 0.00 0.00 0.00 0.00 0.00 0.00 0.00 0.00
0.00 0.00 0.00 0.00 0.00 0.06 0.12 0.21 0.09 0.03 0.03 0.17 0.05 0.27 0.13 0.59 0.44 0.37 0.70 1.48 1.88 4.06 2.62 2.34 1.27 0.67 0.23 0.02 0.00 0.00 0.00 0.00 0.00 0.00 0.00 0.00 0.00 0.00 0.00 0.00 0.00 0.00 0.00 0.00 0.00 0.00 0.00 0.00 0.00
0.00 0.00 0.00 0.00 0.01 0.15 0.23 0.06 0.04 0.05 0.01 0.08 0.25 0.38 0.31 0.59 0.28 0.33 0.40 0.97 1.24 1.90 1.51 0.99 0.80 0.56 0.10 0.02 0.01 0.00 0.00 0.00 0.00 0.00 0.00 0.00 0.00 0.00 0.00 0.00 0.00 0.00 0.00 0.00 0.00 0.00 0.00 0.00 0.00
0.00 0.00 0.00 0.00 0.06 0.24 0.13 0.03 0.02 0.04 0.03 0.06 0.16 0.59 0.46 0.20 0.27 0.41 0.46 0.39 0.58 0.63 0.68 0.41 0.22 0.08 0.06 0.00 0.00 0.00 0.00 0.00 0.00 0.00 0.00 0.00 0.00 0.00 0.00 0.00 0.00 0.00 0.00 0.00 0.00 0.00 0.00 0.00 0.00
0.00 0.00 0.00 0.02 0.11 0.04 0.02 0.06 0.02 0.09 0.12 0.11 0.67 0.29 0.26 0.30 0.43 0.58 0.85 0.38 0.13 0.15 0.12 0.15 0.10 0.02 0.01 0.00 0.00 0.00 0.00 0.00 0.00 0.00 0.00 0.00 0.00 0.00 0.00 0.00 0.01 0.00 0.00 0.00 0.00 0.00 0.00 0.00 0.00
0.00 0.00 0.00 0.01 0.01 0.01 0.00 0.00 0.02 0.14 0.54 0.21 0.22 0.28 0.31 0.59 0.54 0.21 0.15 0.10 0.04 0.04 0.06 0.04 0.02 0.01 0.00 0.00 0.00 0.00 0.00 0.01 0.04 0.01 0.00 0.01 0.01 0.00 0.00 0.00 0.00 0.00 0.00 0.00 0.00 0.00 0.00 0.00 0.00
0.00 0.00 0.00 0.01 0.04 0.03 0.00 0.03 0.05 0.01 0.03 0.08 0.13 0.15 0.24 0.36 0.12 0.03 0.03 0.01 0.00 0.00 0.00 0.00 0.00 0.00 0.00 0.00 0.00 0.00 0.03 0.04 0.06 0.05 0.05 0.02 0.01 0.00 0.00 0.00 0.00 0.00 0.00 0.00 0.00 0.00 0.00 0.00 0.00
0.00 0.00 0.00 0.00 0.00 0.01 0.01 0.01 0.00 0.02 0.05 0.06 0.07 0.12 0.08 0.03 0.01 0.01 0.02 0.02 0.00 0.00 0.00 0.00 0.00 0.00 0.00 0.00 0.01 0.07 0.15 0.21 0.20 0.18 0.15 0.13 0.08 0.05 0.03 0.01 0.00 0.01 0.01 0.00 0.00 0.00 0.00 0.00 0.00
0.00 0.00 0.00 0.00 0.00 0.00 0.01 0.00 0.00 0.01 0.02 0.00 0.02 0.03 0.01 0.01 0.01 0.01 0.01 0.03 0.00 0.00 0.00 0.03 0.07 0.04 0.03 0.05 0.09 0.28 0.31 0.21 0.12 0.20 0.32 0.26 0.12 0.06 0.02 0.01 0.01 0.01 0.00 0.00 0.00 0.00 0.00 0.00 0.00
0.00 0.00 0.00 0.00 0.00 0.00 0.00 0.00 0.00 0.01 0.00 0.01 0.01 0.00 0.00 0.00 0.00 0.00 0.00 0.00 0.00 0.00 0.01 0.08 0.21 0.26 0.29 0.37 0.38 0.72 0.49 0.17 0.13 0.18 0.16 0.07 0.04 0.03 0.01 0.00 0.00 0.00 0.00 0.00 0.00 0.00 0.00 0.00 0.00
0.00 0.00 0.00 0.00 0.00 0.00 0.00 0.00 0.01 0.01 0.04 0.05 0.02 0.01 0.01 0.01 0.01 0.00 0.03 0.01 0.04 0.02 0.04 0.10 0.32 0.66 0.75 0.56 0.84 0.56 0.11 0.03 0.03 0.05 0.03 0.02 0.01 0.00 0.00 0.00 0.00 0.00 0.00 0.00 0.00 0.00 0.00 0.00 0.00
0.00 0.00 0.00 0.00 0.00 0.00 0.00 0.00 0.00 0.00 0.04 0.26 0.05 0.03 0.04 0.00 0.01 0.03 0.07 0.07 0.07 0.05 0.10 0.37 0.47 0.74 0.72 0.42 0.29 0.11 0.05 0.02 0.02 0.02 0.01 0.00 0.00 0.00 0.00 0.00 0.00 0.00 0.00 0.00 0.00 0.00 0.00 0.00 0.00
0.00 0.00 0.00 0.00 0.00 0.00 0.00 0.00 0.00 0.00 0.00 0.02 0.02 0.07 0.02 0.00 0.03 0.05 0.07 0.09 0.07 0.08 0.18 0.39 0.47 0.59 0.29 0.08 0.04 0.04 0.04 0.04 0.04 0.01 0.00 0.00 0.00 0.00 0.00 0.00 0.00 0.00 0.00 0.00 0.00 0.00 0.00 0.00 0.00
0.00 0.00 0.00 0.00 0.00 0.00 0.00 0.00 0.00 0.00 0.00 0.01 0.01 0.11 0.03 0.00 0.01 0.02 0.03 0.03 0.04 0.10 0.35 0.43 0.23 0.12 0.01 0.01 0.01 0.03 0.05 0.02 0.00 0.00 0.00 0.00 0.00 0.00 0.00 0.00 0.00 0.00 0.00 0.00 0.00 0.00 0.00 0.00 0.00
0.00 0.00 0.00 0.00 0.00 0.00 0.00 0.00 0.00 0.00 0.00 0.00 0.00 0.00 0.00 0.00 0.02 0.03 0.03 0.03 0.01 0.02 0.17 0.16 0.04 0.02 0.00 0.01 0.02 0.01 0.00 0.00 0.00 0.00 0.00 0.00 0.00 0.00 0.00 0.00 0.00 0.00 0.00 0.00 0.00 0.00 0.00 0.00 0.00
0.00 0.00 0.00 0.00 0.00 0.00 0.00 0.00 0.00 0.00 0.00 0.00 0.00 0.00 0.00 0.00 0.00 0.00 0.00 0.00 0.01 0.06 0.22 0.07 0.05 0.02 0.01 0.01 0.00 0.00 0.00 0.00 0.00 0.00 0.00 0.00 0.00 0.00 0.00 0.00 0.00 0.00 0.00 0.00 0.00 0.00 0.00 0.00 0.00
0.00 0.00 0.00 0.00 0.00 0.04 0.02 0.00 0.03 0.05 0.00 0.00 0.00 0.00 0.00 0.00 0.00 0.00 0.00 0.00 0.02 0.04 0.13 0.07 0.02 0.02 0.02 0.01 0.00 0.00 0.00 0.00 0.00 0.00 0.00 0.00 0.00 0.00 0.00 0.00 0.00 0.00 0.00 0.00 0.00 0.00 0.00 0.00 0.00
0.00 0.00 0.00 0.00 0.00 0.01 0.01 0.01 0.00 0.00 0.00 0.01 0.00 0.00 0.00 0.00 0.00 0.00 0.00 0.01 0.02 0.08 0.09 0.01 0.00 0.00 0.00 0.00 0.00 0.00 0.00 0.00 0.00 0.00 0.00 0.00 0.00 0.00 0.00 0.00 0.00 0.00 0.00 0.00 0.00 0.00 0.00 0.00 0.00
0.00 0.00 0.00 0.03 0.00 0.00 0.00 0.01 0.01 0.01 0.04 0.08 0.10 0.00 0.00 0.00 0.00 0.00 0.02 0.04 0.04 0.05 0.03 0.00 0.00 0.00 0.00 0.00 0.00 0.00 0.00 0.00 0.00 0.00 0.00 0.00 0.00 0.00 0.00 0.00 0.00 0.00 0.00 0.00 0.00 0.00 0.00 0.01 0.00
0.00 0.00 0.00 0.06 0.06 0.01 0.03 0.01 0.00 0.00 0.00 0.00 0.00 0.00 0.00 0.00 0.00 0.00 0.01 0.02 0.04 0.05 0.01 0.00 0.00 0.00 0.00 0.00 0.00 0.00 0.00 0.00 0.00 0.00 0.00 0.00 0.00 0.00 0.00 0.00 0.00 0.00 0.00 0.00 0.01 0.01 0.02 0.01 0.00
0.00 0.00 0.00 0.01 0.04 0.01 0.01 0.00 0.00 0.00 0.00 0.00 0.00 0.00 0.00 0.00 0.00 0.00 0.00 0.01 0.02 0.02 0.01 0.00 0.00 0.00 0.00 0.00 0.00 0.00 0.00 0.00 0.00 0.00 0.00 0.00 0.00 0.00 0.00 0.00 0.01 0.02 0.01 0.00 0.02 0.02 0.01 0.01 0.01
0.00 0.00 0.00 0.00 0.00 0.00 0.00 0.00 0.00 0.00 0.00 0.00 0.00 0.00 0.00 0.00 0.00 0.00 0.00 0.00 0.00 0.00 0.00 0.00 0.00 0.00 0.00 0.00 0.00 0.00 0.00 0.00 0.00 0.00 0.00 0.00 0.00 0.00 0.00 0.01 0.02 0.01 0.02 0.03 0.02 0.01 0.00 0.00 0.00
0.00 0.00 0.00 0.00 0.00 0.00 0.00 0.00 0.00 0.00 0.00 0.00 0.00 0.00 0.00 0.00 0.00 0.00 0.00 0.00 0.00 0.00 0.00 0.00 0.00 0.00 0.00 0.00 0.00 0.00 0.00 0.00 0.00 0.00 0.00 0.00 0.00 0.00 0.00 0.00 0.01 0.01 0.01 0.00 0.01 0.02 0.00 0.01 0.01
0.00 0.01 0.04 0.00 0.00 0.00 0.00 0.00 0.00 0.00 0.00 0.00 0.00 0.00 0.00 0.00 0.00 0.00 0.00 0.00 0.00 0.00 0.00 0.00 0.00 0.00 0.00 0.00 0.00 0.00 0.00 0.00 0.00 0.00 0.00 0.00 0.00 0.00 0.00 0.00 0.01 0.00 0.00 0.01 0.02 0.01 0.01 0.01 0.01

GFSSGP_prec_precacc_030.txt.gz
Total_Precipitation_Accumulation
0.00 0.00 0.00 0.00 0.00 0.00 0.00 0.00 0.00 0.00 0.02 0.04 0.06 0.05 0.07 0.10 0.25 0.38 0.16 0.32 0.23 0.15 0.07 0.05 0.13 0.09 0.00 0.00 0.00 0.00 0.00 0.00 0.00 0.00 0.00 0.00 0.00 0.00 0.00 0.00 0.00 0.00 0.00 0.00 0.00 0.00 0.00 0.00 0.00
0.00 0.00 0.00 0.00 0.00 0.00 0.00 0.00 0.00 0.01 0.10 0.14 0.11 0.06 0.08 0.22 0.22 0.29 0.23 0.28 0.17 0.18 0.11 0.04 0.16 0.22 0.09 0.05 0.05 0.04 0.01 0.00 0.00 0.00 0.00 0.00 0.00 0.00 0.00 0.00 0.00 0.00 0.00 0.00 0.00 0.00 0.00 0.00 0.00
0.00 0.00 0.00 0.00 0.00 0.00 0.00 0.00 0.02 0.05 0.10 0.09 0.12 0.07 0.13 0.26 0.22 0.35 0.21 0.35 0.40 0.44 0.27 0.16 0.15 0.24 0.27 0.21 0.19 0.12 0.04 0.00 0.00 0.00 0.00 0.00 0.00 0.00 0.00 0.00 0.00 0.00 0.00 0.00 0.00 0.00 0.00 0.00 0.00
0.00 0.00 0.00 0.00 0.00 0.00 0.00 0.01 0.03 0.06 0.08 0.05 0.05 0.07 0.11 0.25 0.33 0.32 0.40 0.75 0.87 0.86 0.65 0.39 0.33 0.30 0.41 0.38 0.23 0.08 0.01 0.00 0.00 0.00 0.00 0.00 0.00 0.00 0.00 0.00 0.00 0.00 0.00 0.00 0.00 0.00 0.00 0.00 0.00
0.00 0.00 0.00 0.00 0.00 0.00 0.00 0.01 0.06 0.17 0.30 0.25 0.10 0.03 0.08 0.15 0.22 0.44 1.00 1.45 1.57 1.36 1.38 0.74 0.91 0.79 0.68 0.46 0.18 0.05 0.00 0.00 0.00 0.00 0.00 0.00 0.00 0.00 0.00 0.00 0.00 0.00 0.00 0.00 0.00 0.00 0.00 0.00 0.00
0.00 0.00 0.00 0.00 0.00 0.00 0.01 0.05 0.15 0.25 0.27 0.15 0.06 0.04 0.14 0.35 0.24 0.68 1.11 1.97 2.68 1.47 1.15 1.02 1.54 2.02 1.11 0.32 0.08 0.00 0.00 0.00 0.00 0.00 0.00 0.00 0.00 0.00 0.00 0.00 0.00 0.00 0.00 0.00 0.00 0.00 0.00 0.00 0.00
0.00 0.00 0.00 0.00 0.00 0.00 0.02 0.06 0.19 0.14 0.05 0.02 0.11 0.31 0.59 0.42 0.44 0.62 1.36 2.74 4.02 4.08 3.49 3.20 2.12 1.67 0.73 0.12 0.00 0.00 0.00 0.00 0.00 0.00 0.00 0.00 0.00 0.00 0.00 0.00 0.00 0.00 0.00 0.00 0.00 0.00 0.00 0.00 0.00
0.00 0.00 0.00 0.00 0.00 0.06 0.12 0.21 0.09 0.03 0.03 0.18 0.08 0.28 0.18 0.73 0.52 0.44 0.81 1.79 2.89 5.83 4.86 5.10 3.92 1.53 0.36 0.03 0.00 0.00 0.00 0.00 0.00 0.00 0.00 0.00 0.00 0.00 0.00 0.00 0.00 0.00 0.00 0.00 0.00 0.00 0.00 0.00 0.00
0.00 0.00 0.00 0.00 0.01 0.15 0.23 0.06 0.05 0.05 0.01 0.09 0.26 0.39 0.35 0.63 0.34 0.41 0.49 1.06 1.51 2.71 2.65 2.32 2.31 1.08 0.18 0.04 0.01 0.00 0.00 0.00 0.00 0.00 0.00 0.00 0.00 0.00 0.00 0.00 0.00 0.00 0.00 0.00 0.00 0.00 0.00 0.00 0.00
0.00 0.00 0.00 0.00 0.06 0.24 0.13 0.03 0.03 0.04 0.04 0.08 0.18 0.63 0.52 0.27 0.34 0.44 0.48 0.40 0.63 0.87 1.21 1.08 0.75 0.38 0.14 0.02 0.00 0.00 0.00 0.00 0.00 0.00 0.00 0.00 0.00 0.00 0.00 0.00 0.00 0.00 0.00 0.00 0.00 0.00 0.00 0.00 0.00
0.00 0.00 0.00 0.02 0.11 0.04 0.02 0.06 0.02 0.09 0.12 0.14 0.74 0.40 0.33 0.40 0.46 0.59 0.86 0.39 0.14 0.24 0.36 0.39 0.37 0.15 0.05 0.00 0.00 0.00 0.00 0.00 0.00 0.00 0.00 0.00 0.00 0.00 0.00 0.00 0.01 0.00 0.00 0.00 0.00 0.00 0.00 0.00 0.00
0.00 0.00 0.00 0.01 0.01 0.01 0.00 0.00 0.02 0.14 0.54 0.23 0.29 0.34 0.40 0.70 0.58 0.22 0.16 0.11 0.04 0.04 0.09 0.08 0.09 0.05 0.00 0.00 0.00 0.00 0.00 0.01 0.04 0.01 0.00 0.01 0.01 0.00 0.00 0.00 0.00 0.00 0.00 0.00 0.00 0.00 0.00 0.00 0.00
0.00 0.00 0.00 0.01 0.04 0.03 0.00 0.03 0.05 0.01 0.03 0.11 0.13 0.17 0.38 0.48 0.13 0.03 0.03 0.01 0.00 0.00 0.00 0.00 0.01 0.00 0.00 0.00 0.00 0.00 0.03 0.04 0.06 0.05 0.05 0.02 0.01 0.00 0.00 0.00 0.00 0.00 0.00 0.00 0.00 0.00 0.00 0.00 0.00
0.00 0.00 0.00 0.00 0.00 0.01 0.01 0.02 0.00 0.02 0.07 0.11 0.10 0.14 0.10 0.04 0.01 0.01 0.02 0.02 0.00 0.00 0.00 0.00 0.00 0.00 0.00 0.00 0.01 0.07 0.15 0.21 0.20 0.18 0.15 0.13 0.08 0.05 0.03 0.01 0.00 0.01 0.01 0.00 0.00 0.00 0.00 0.00 0.00
0.00 0.00 0.01 0.02 0.01 0.00 0.01 0.01 0.00 0.01 0.03 0.04 0.03 0.03 0.01 0.01 0.01 0.01 0.01 0.03 0.00 0.00 0.00 0.03 0.07 0.04 0.03 0.05 0.09 0.28 0.31 0.21 0.12 0.20 0.32 0.26 0.12 0.06 0.02 0.01 0.01 0.01 0.00 0.00 0.00 0.00 0.00 0.00 0.00
0.00 0.00 0.00 0.02 0.01 0.00 0.00 0.00 0.00 0.01 0.00 0.01 0.01 0.00 0.01 0.00 0.00 0.00 0.00 0.00 0.00 0.00 0.01 0.08 0.21 0.26 0.29 0.37 0.38 0.72 0.49 0.20 0.13 0.18 0.16 0.07 0.04 0.03 0.01 0.00 0.00 0.00 0.00 0.00 0.00 0.00 0.00 0.00 0.00
0.00 0.00 0.00 0.00 0.00 0.00 0.00 0.00 0.01 0.01 0.05 0.07 0.02 0.01 0.01 0.01 0.01 0.00 0.03 0.01 0.04 0.02 0.04 0.10 0.32 0.66 0.75 0.56 0.84 0.56 0.12 0.05 0.04 0.05 0.03 0.02 0.01 0.00 0.00 0.00 0.00 0.00 0.00 0.00 0.00 0.00 0.00 0.00 0.00
0.00 0.00 0.00 0.00 0.00 0.00 0.00 0.00 0.00 0.01 0.05 0.27 0.09 0.04 0.04 0.00 0.01 0.03 0.07 0.07 0.07 0.05 0.10 0.37 0.47 0.74 0.72 0.42 0.29 0.11 0.06 0.05 0.02 0.02 0.01 0.00 0.00 0.00 0.00 0.00 0.00 0.00 0.00 0.00 0.00 0.00 0.00 0.00 0.00
0.00 0.00 0.00 0.00 0.00 0.00 0.00 0.00 0.00 0.00 0.00 0.03 0.05 0.07 0.02 0.00 0.03 0.05 0.07 0.09 0.07 0.08 0.18 0.39 0.47 0.59 0.29 0.08 0.04 0.05 0.06 0.05 0.04 0.01 0.00 0.00 0.00 0.00 0.00 0.00 0.00 0.00 0.00 0.00 0.00 0.00 0.00 0.00 0.00
0.00 0.00 0.00 0.00 0.00 0.00 0.00 0.00 0.00 0.00 0.00 0.01 0.01 0.11 0.03 0.00 0.01 0.02 0.04 0.03 0.04 0.11 0.36 0.43 0.23 0.13 0.02 0.01 0.01 0.03 0.05 0.03 0.00 0.00 0.00 0.00 0.00 0.00 0.00 0.00 0.00 0.00 0.00 0.00 0.00 0.00 0.00 0.00 0.00
0.00 0.00 0.00 0.00 0.00 0.00 0.00 0.00 0.00 0.00 0.00 0.01 0.00 0.00 0.00 0.00 0.02 0.03 0.03 0.03 0.01 0.02 0.18 0.18 0.06 0.05 0.02 0.02 0.02 0.03 0.03 0.01 0.00 0.00 0.00 0.00 0.00 0.00 0.00 0.00 0.00 0.00 0.00 0.00 0.00 0.00 0.00 0.00 0.00
0.00 0.00 0.00 0.00 0.00 0.00 0.00 0.00 0.00 0.00 0.00 0.00 0.00 0.00 0.00 0.00 0.00 0.00 0.00 0.00 0.01 0.06 0.25 0.11 0.10 0.10 0.06 0.04 0.04 0.04 0.10 0.06 0.02 0.00 0.00 0.00 0.00 0.00 0.00 0.00 0.00 0.00 0.00 0.00 0.00 0.00 0.00 0.00 0.00
0.00 0.00 0.00 0.00 0.00 0.04 0.02 0.00 0.03 0.05 0.00 0.00 0.00 0.00 0.00 0.00 0.00 0.00 0.00 0.00 0.02 0.07 0.20 0.15 0.12 0.16 0.09 0.10 0.16 0.11 0.15 0.11 0.03 0.00 0.00 0.00 0.00 0.00 0.00 0.00 0.00 0.00 0.00 0.00 0.00 0.00 0.00 0.00 0.00
0.00 0.00 0.00 0.00 0.00 0.01 0.01 0.01 0.00 0.00 0.00 0.01 0.00 0.00 0.00 0.00 0.00 0.00 0.00 0.01 0.03 0.11 0.17 0.29 0.28 0.16 0.10 0.13 0.18 0.13 0.11 0.08 0.02 0.01 0.00 0.00 0.00 0.00 0.00 0.00 0.00 0.00 0.00 0.00 0.00 0.00 0.00 0.00 0.00
0.00 0.00 0.00 0.03 0.00 0.00 0.00 0.01 0.01 0.01 0.04 0.08 0.10 0.00 0.00 0.00 0.00 0.00 0.02 0.04 0.04 0.08 0.13 0.18 0.24 0.17 0.10 0.09 0.10 0.06 0.03 0.02 0.01 0.00 0.00 0.00 0.00 0.00 0.00 0.00 0.00 0.00 0.00 0.00 0.00 0.00 0.00 0.01 0.00
0.00 0.00 0.00 0.06 0.06 0.01 0.03 0.01 0.00 0.00 0.00 0.00 0.00 0.00 0.00 0.00 0.00 0.00 0.01 0.02 0.05 0.11 0.08 0.06 0.19 0.18 0.08 0.08 0.04 0.01 0.01 0.01 0.00 0.00 0.00 0.00 0.00 0.00 0.00 0.00 0.00 0.00 0.01 0.01 0.01 0.01 0.02 0.01 0.00
0.00 0.00 0.00 0.01 0.04 0.01 0.01 0.00 0.00 0.00 0.00 0.00 0.00 0.00 0.00 0.00 0.00 0.00 0.00 0.01 0.04 0.07 0.04 0.09 0.08 0.06 0.02 0.01 0.00 0.00 0.01 0.02 0.03 0.03 0.00 0.00 0.00 0.00 0.00 0.00 0.01 0.02 0.01 0.00 0.02 0.02 0.01 0.01 0.01
0.00 0.00 0.00 0.00 0.00 0.00 0.00 0.00 0.00 0.00 0.00 0.00 0.00 0.00 0.00 0.00 0.00 0.00 0.00 0.00 0.01 0.01 0.01 0.04 0.02 0.00 0.00 0.00 0.00 0.01 0.03 0.03 0.02 0.01 0.01 0.01 0.00 0.00 0.00 0.01 0.02 0.01 0.02 0.03 0.02 0.01 0.00 0.00 0.00
0.00 0.00 0.00 0.00 0.00 0.00 0.00 0.00 0.00 0.00 0.00 0.00 0.00 0.00 0.00 0.00 0.00 0.00 0.00 0.00 0.00 0.00 0.00 0.00 0.00 0.00 0.00 0.00 0.00 0.02 0.03 0.02 0.02 0.01 0.01 0.00 0.00 0.00 0.00 0.00 0.01 0.01 0.01 0.00 0.01 0.02 0.00 0.01 0.01
0.00 0.01 0.04 0.00 0.00 0.00 0.00 0.00 0.00 0.00 0.00 0.00 0.00 0.00 0.00 0.00 0.00 0.00 0.00 0.00 0.00 0.00 0.00 0.01 0.01 0.00 0.00 0.02 0.03 0.03 0.02 0.01 0.00 0.00 0.00 0.00 0.00 0.00 0.00 0.00 0.01 0.00 0.00 0.01 0.02 0.01 0.01 0.01 0.01

GFSSGP_prec_precacc_033.txt.gz
Total_Precipitation_Accumulation
0.00 0.00 0.00 0.00 0.00 0.00 0.00 0.00 0.00 0.00 0.03 0.08 0.08 0.07 0.09 0.16 0.28 0.40 0.16 0.35 0.24 0.16 0.08 0.05 0.13 0.09 0.00 0.00 0.00 0.00 0.00 0.00 0.00 0.00 0.00 0.00 0.00 0.00 0.00 0.00 0.00 0.00 0.00 0.00 0.00 0.00 0.00 0.00 0.00
0.00 0.00 0.00 0.00 0.00 0.00 0.00 0.00 0.00 0.01 0.10 0.15 0.16 0.13 0.11 0.26 0.26 0.33 0.28 0.33 0.20 0.19 0.12 0.04 0.18 0.22 0.09 0.05 0.05 0.04 0.01 0.00 0.00 0.00 0.00 0.00 0.00 0.00 0.00 0.00 0.00 0.00 0.00 0.00 0.00 0.00 0.00 0.00 0.00
0.00 0.00 0.00 0.00 0.00 0.00 0.00 0.00 0.02 0.05 0.11 0.12 0.16 0.15 0.14 0.27 0.26 0.42 0.25 0.39 0.43 0.46 0.28 0.18 0.22 0.24 0.27 0.21 0.19 0.12 0.04 0.00 0.00 0.00 0.00 0.00 0.00 0.00 0.00 0.00 0.00 0.00 0.00 0.00 0.00 0.00 0.00 0.00 0.00
0.00 0.00 0.00 0.00 0.00 0.00 0.00 0.01 0.03 0.06 0.08 0.06 0.07 0.10 0.15 0.30 0.35 0.36 0.44 0.79 0.91 0.89 0.65 0.41 0.40 0.31 0.41 0.38 0.23 0.08 0.01 0.00 0.00 0.00 0.00 0.00 0.00 0.00 0.00 0.00 0.00 0.00 0.00 0.00 0.00 0.00 0.00 0.00 0.00
0.00 0.00 0.00 0.00 0.00 0.00 0.00 0.01 0.06 0.17 0.30 0.25 0.10 0.04 0.13 0.23 0.28 0.46 1.01 1.48 1.62 1.40 1.50 0.87 1.05 0.85 0.69 0.46 0.18 0.05 0.00 0.00 0.00 0.00 0.00 0.00 0.00 0.00 0.00 0.00 0.00 0.00 0.00 0.00 0.00 0.00 0.00 0.00 0.00
0.00 0.00 0.00 0.00 0.00 0.00 0.01 0.05 0.15 0.25 0.27 0.15 0.06 0.04 0.20 0.42 0.28 0.70 1.12 1.99 2.77 1.53 1.45 1.28 1.65 2.15 1.29 0.38 0.08 0.00 0.00 0.00 0.00 0.00 0.00 0.00 0.00 0.00 0.00 0.00 0.00 0.00 0.00 0.00 0.00 0.00 0.00 0.00 0.00
0.00 0.00 0.00 0.00 0.00 0.00 0.02 0.06 0.19 0.14 0.05 0.02 0.11 0.31 0.63 0.49 0.45 0.62 1.37 2.77 4.10 4.26 3.74 3.58 2.47 1.96 0.98 0.17 0.00 0.00 0.00 0.00 0.00 0.00 0.00 0.00 0.00 0.00 0.00 0.00 0.00 0.00 0.00 0.00 0.00 0.00 0.00 0.00 0.00
0.00 0.00 0.00 0.00 0.00 0.06 0.12 0.21 0.12 0.07 0.05 0.18 0.09 0.29 0.20 0.77 0.53 0.44 0.82 1.82 2.96 5.92 5.12 5.47 4.75 2.25 0.64 0.10 0.00 0.00 0.00 0.00 0.00 0.00 0.00 0.00 0.00 0.00 0.00 0.00 0.00 0.00 0.00 0.00 0.00 0.00 0.00 0.00 0.00
0.00 0.00 0.00 0.00 0.01 0.15 0.23 0.07 0.09 0.08 0.02 0.10 0.27 0.40 0.36 0.65 0.35 0.41 0.49 1.06 1.53 2.83 2.88 2.76 2.69 1.73 0.40 0.05 0.01 0.00 0.00 0.00 0.00 0.00 0.00 0.00 0.00 0.00 0.00 0.00 0.00 0.00 0.00 0.00 0.00 0.00 0.00 0.00 0.00
0.00 0.00 0.00 0.00 0.06 0.24 0.13 0.03 0.04 0.04 0.04 0.09 0.20 0.65 0.54 0.27 0.34 0.45 0.49 0.41 0.65 0.90 1.34 1.33 1.13 0.60 0.19 0.02 0.00 0.00 0.00 0.00 0.00 0.00 0.00 0.00 0.00 0.00 0.00 0.00 0.00 0.00 0.00 0.00 0.00 0.00 0.00 0.00 0.00
0.00 0.00 0.00 0.02 0.11 0.04 0.02 0.06 0.02 0.11 0.12 0.15 0.75 0.41 0.36 0.42 0.47 0.60 0.87 0.41 0.18 0.25 0.37 0.43 0.48 0.30 0.11 0.01 0.00 0.00 0.00 0.00 0.00 0.00 0.00 0.00 0.00 0.00 0.00 0.00 0.01 0.00 0.00 0.00 0.00 0.00 0.00 0.00 0.00
0.00 0.00 0.00 0.01 0.01 0.01 0.00 0.00 0.02 0.14 0.54 0.23 0.29 0.36 0.42 0.71 0.59 0.22 0.18 0.15 0.08 0.05 0.14 0.15 0.24 0.21 0.07 0.01 0.00 0.00 0.00 0.01 0.04 0.01 0.00 0.01 0.01 0.00 0.00 0.00 0.00 0.00 0.00 0.00 0.00 0.00 0.00 0.00 0.00
0.00 0.00 0.00 0.01 0.04 0.03 0.00 0.03 0.06 0.01 0.03 0.11 0.13 0.22 0.44 0.49 0.14 0.04 0.04 0.02 0.01 0.01 0.01 0.01 0.03 0.03 0.01 0.00 0.00 0.00 0.03 0.04 0.06 0.05 0.05 0.02 0.01 0.00 0.00 0.00 0.00 0.00 0.00 0.00 0.00 0.00 0.00 0.00 0.00
0.00 0.00 0.00 0.00 0.01 0.01 0.02 0.02 0.00 0.02 0.07 0.11 0.10 0.15 0.14 0.04 0.02 0.01 0.02 0.03 0.00 0.00 0.00 0.00 0.00 0.02 0.00 0.00 0.01 0.07 0.15 0.21 0.20 0.18 0.15 0.13 0.08 0.05 0.03 0.01 0.00 0.01 0.01 0.00 0.00 0.00 0.00 0.00 0.00
0.00 0.00 0.02 0.03 0.01 0.00 0.01 0.01 0.00 0.01 0.03 0.04 0.03 0.03 0.01 0.01 0.01 0.01 0.01 0.03 0.00 0.00 0.00 0.03 0.07 0.05 0.03 0.05 0.09 0.28 0.31 0.21 0.12 0.20 0.32 0.27 0.12 0.06 0.02 0.01 0.01 0.01 0.00 0.00 0.00 0.00 0.00 0.00 0.00
0.00 0.00 0.01 0.04 0.03 0.01 0.00 0.00 0.00 0.01 0.00 0.01 0.01 0.00 0.01 0.00 0.00 0.00 0.00 0.00 0.00 0.00 0.01 0.08 0.21 0.27 0.29 0.37 0.38 0.72 0.49 0.20 0.14 0.22 0.20 0.10 0.05 0.03 0.01 0.00 0.00 0.00 0.00 0.00 0.00 0.00 0.00 0.00 0.00
0.00 0.00 0.00 0.00 0.01 0.01 0.00 0.00 0.01 0.01 0.05 0.07 0.02 0.01 0.01 0.01 0.01 0.00 0.03 0.01 0.04 0.02 0.04 0.10 0.32 0.66 0.75 0.56 0.84 0.56 0.12 0.05 0.06 0.10 0.06 0.04 0.02 0.00 0.00 0.00 0.00 0.00 0.00 0.00 0.00 0.00 0.00 0.00 0.00
0.00 0.00 0.00 0.00 0.00 0.00 0.00 0.00 0.00 0.01 0.05 0.27 0.09 0.04 0.04 0.00 0.01 0.03 0.07 0.07 0.07 0.05 0.10 0.37 0.47 0.74 0.72 0.42 0.29 0.11 0.07 0.09 0.06 0.04 0.01 0.00 0.00 0.00 0.00 0.00 0.00 0.00 0.00 0.00 0.00 0.00 0.00 0.00 0.00
0.00 0.00 0.00 0.00 0.00 0.00 0.00 0.00 0.00 0.00 0.00 0.03 0.05 0.07 0.02 0.00 0.03 0.05 0.07 0.09 0.07 0.08 0.18 0.39 0.47 0.59 0.29 0.08 0.04 0.05 0.10 0.11 0.06 0.01 0.00 0.00 0.00 0.00 0.00 0.00 0.00 0.00 0.00 0.00 0.00 0.00 0.00 0.00 0.00
0.00 0.00 0.00 0.00 0.00 0.00 0.00 0.00 0.00 0.00 0.00 0.01 0.01 0.11 0.03 0.00 0.01 0.02 0.04 0.03 0.04 0.11 0.36 0.43 0.23 0.13 0.02 0.01 0.01 0.03 0.07 0.06 0.01 0.00 0.00 0.00 0.00 0.00 0.00 0.00 0.00 0.00 0.00 0.00 0.00 0.00 0.00 0.00 0.00
0.00 0.00 0.00 0.00 0.00 0.00 0.00 0.00 0.00 0.00 0.00 0.01 0.00 0.00 0.00 0.00 0.02 0.03 0.03 0.03 0.01 0.02 0.18 0.18 0.06 0.05 0.02 0.02 0.02 0.03 0.08 0.08 0.02 0.00 0.00 0.00 0.00 0.00 0.00 0.00 0.00 0.00 0.00 0.00 0.00 0.00 0.00 0.00 0.00
0.00 0.00 0.00 0.00 0.00 0.00 0.00 0.00 0.00 0.00 0.00 0.00 0.00 0.00 0.00 0.00 0.00 0.00 0.00 0.00 0.01 0.06 0.25 0.11 0.10 0.10 0.09 0.08 0.06 0.06 0.13 0.08 0.05 0.02 0.01 0.00 0.00 0.00 0.00 0.00 0.00 0.00 0.00 0.00 0.00 0.00 0.00 0.00 0.00
0.00 0.00 0.00 0.00 0.00 0.04 0.02 0.00 0.03 0.05 0.00 0.00 0.00 0.00 0.00 0.00 0.00 0.00 0.00 0.00 0.02 0.07 0.20 0.15 0.12 0.20 0.14 0.21 0.23 0.17 0.19 0.16 0.08 0.02 0.01 0.00 0.00 0.00 0.00 0.00 0.00 0.00 0.00 0.00 0.00 0.00 0.00 0.00 0.00
0.00 0.00 0.00 0.00 0.00 0.01 0.01 0.01 0.00 0.00 0.00 0.01 0.00 0.00 0.00 0.00 0.00 0.00 0.00 0.01 0.03 0.11 0.17 0.29 0.31 0.20 0.15 0.21 0.20 0.15 0.13 0.10 0.04 0.03 0.01 0.01 0.01 0.00 0.00 0.00 0.00 0.00 0.00 0.00 0.00 0.00 0.00 0.00 0.00
0.00 0.00 0.00 0.03 0.00 0.00 0.00 0.01 0.01 0.01 0.04 0.08 0.10 0.00 0.00 0.00 0.00 0.00 0.02 0.04 0.04 0.08 0.13 0.18 0.32 0.35 0.20 0.18 0.14 0.09 0.06 0.04 0.02 0.01 0.04 0.03 0.01 0.00 0.00 0.00 0.00 0.00 0.00 0.00 0.01 0.00 0.00 0.01 0.00
0.00 0.00 0.00 0.06 0.06 0.01 0.03 0.01 0.00 0.00 0.00 0.00 0.00 0.00 0.00 0.00 0.00 0.00 0.01 0.02 0.05 0.11 0.08 0.06 0.29 0.37 0.35 0.19 0.11 0.07 0.03 0.02 0.01 0.02 0.05 0.03 0.00 0.00 0.00 0.00 0.00 0.00 0.01 0.01 0.01 0.01 0.02 0.01 0.00
0.00 0.00 0.00 0.01 0.04 0.01 0.01 0.00 0.00 0.00 0.00 0.00 0.00 0.00 0.00 0.00 0.00 0.00 0.00 0.01 0.04 0.07 0.05 0.09 0.09 0.19 0.16 0.05 0.03 0.02 0.02 0.04 0.06 0.07 0.04 0.01 0.00 0.00 0.00 0.00 0.01 0.02 0.01 0.00 0.02 0.02 0.01 0.01 0.01
0.00 0.00 0.00 0.00 0.00 0.00 0.00 0.00 0.00 0.00 0.00 0.00 0.00 0.00 0.00 0.00 0.00 0.00 0.00 0.00 0.01 0.01 0.01 0.06 0.04 0.02 0.02 0.02 0.01 0.02 0.04 0.05 0.05 0.06 0.06 0.03 0.01 0.00 0.00 0.01 0.02 0.01 0.02 0.03 0.02 0.01 0.00 0.00 0.00
0.00 0.00 0.00 0.00 0.00 0.00 0.00 0.00 0.00 0.00 0.00 0.00 0.00 0.00 0.00 0.00 0.00 0.00 0.00 0.00 0.00 0.00 0.00 0.00 0.00 0.01 0.01 0.01 0.02 0.04 0.07 0.08 0.10 0.08 0.07 0.03 0.01 0.00 0.00 0.00 0.01 0.01 0.01 0.00 0.01 0.02 0.00 0.01 0.01
0.00 0.01 0.04 0.00 0.00 0.00 0.00 0.00 0.00 0.00 0.00 0.00 0.00 0.00 0.00 0.00 0.00 0.00 0.00 0.00 0.00 0.00 0.00 0.01 0.03 0.02 0.04 0.05 0.06 0.08 0.08 0.10 0.08 0.06 0.03 0.01 0.00 0.00 0.00 0.00 0.01 0.00 0.00 0.01 0.02 0.01 0.01 0.01 0.01

GFSSGP_prec_precacc_036.txt.gz
Total_Precipitation_Accumulation
0.00 0.00 0.00 0.00 0.00 0.00 0.00 0.00 0.00 0.00 0.03 0.08 0.08 0.08 0.10 0.16 0.28 0.41 0.17 0.36 0.26 0.17 0.12 0.07 0.13 0.09 0.00 0.00 0.00 0.00 0.00 0.00 0.00 0.00 0.00 0.00 0.00 0.00 0.00 0.00 0.00 0.00 0.00 0.00 0.00 0.00 0.00 0.00 0.00
0.00 0.00 0.00 0.00 0.00 0.00 0.00 0.00 0.00 0.01 0.10 0.16 0.22 0.21 0.20 0.30 0.26 0.35 0.33 0.40 0.23 0.20 0.18 0.14 0.18 0.22 0.09 0.05 0.05 0.04 0.01 0.00 0.00 0.00 0.00 0.00 0.00 0.00 0.00 0.00 0.00 0.00 0.00 0.00 0.00 0.00 0.00 0.00 0.00
0.00 0.00 0.00 0.00 0.00 0.00 0.00 0.00 0.02 0.05 0.11 0.12 0.17 0.20 0.23 0.37 0.32 0.47 0.28 0.45 0.48 0.48 0.31 0.20 0.22 0.24 0.27 0.21 0.19 0.12 0.04 0.00 0.00 0.00 0.00 0.00 0.00 0.00 0.00 0.00 0.00 0.00 0.00 0.00 0.00 0.00 0.00 0.00 0.00
0.00 0.00 0.00 0.00 0.00 0.00 0.00 0.01 0.03 0.06 0.08 0.06 0.07 0.13 0.19 0.49 0.38 0.37 0.47 0.87 0.96 0.94 0.67 0.41 0.41 0.31 0.41 0.38 0.23 0.08 0.01 0.00 0.00 0.00 0.00 0.00 0.00 0.00 0.00 0.00 0.00 0.00 0.00 0.00 0.00 0.00 0.00 0.00 0.00
0.00 0.00 0.00 0.00 0.00 0.00 0.00 0.01 0.06 0.17 0.30 0.25 0.10 0.07 0.15 0.31 0.32 0.49 1.09 1.71 1.77 1.57 1.66 0.90 1.15 0.88 0.69 0.46 0.18 0.05 0.00 0.00 0.00 0.00 0.00 0.00 0.00 0.00 0.00 0.00 0.00 0.00 0.00 0.00 0.00 0.00 0.00 0.00 0.00
0.00 0.00 0.00 0.00 0.00 0.00 0.01 0.05 0.15 0.25 0.27 0.15 0.06 0.04 0.23 0.50 0.32 0.74 1.14 2.06 2.88 1.67 1.69 1.46 1.81 2.27 1.33 0.38 0.08 0.00 0.00 0.00 0.00 0.00 0.00 0.00 0.00 0.00 0.00 0.00 0.00 0.00 0.00 0.00 0.00 0.00 0.00 0.00 0.00
0.00 0.00 0.00 0.00 0.00 0.00 0.02 0.07 0.19 0.14 0.05 0.02 0.11 0.32 0.65 0.50 0.46 0.68 1.44 2.84 4.19 4.55 4.07 3.95 2.70 2.17 1.12 0.23 0.01 0.00 0.00 0.00 0.00 0.00 0.00 0.00 0.00 0.00 0.00 0.00 0.00 0.00 0.00 0.00 0.00 0.00 0.00 0.00 0.00
0.00 0.00 0.00 0.00 0.00 0.06 0.12 0.21 0.12 0.07 0.05 0.18 0.09 0.29 0.23 0.79 0.54 0.45 0.83 1.90 3.08 6.12 5.63 5.72 4.92 2.39 0.80 0.19 0.01 0.00 0.00 0.00 0.00 0.00 0.00 0.00 0.00 0.00 0.00 0.00 0.00 0.00 0.00 0.00 0.00 0.00 0.00 0.00 0.00
0.00 0.00 0.00 0.00 0.01 0.15 0.23 0.07 0.09 0.08 0.02 0.10 0.27 0.40 0.37 0.66 0.36 0.41 0.50 1.08 1.59 2.97 3.04 2.95 2.82 1.85 0.51 0.14 0.06 0.00 0.00 0.00 0.00 0.00 0.00 0.00 0.00 0.00 0.00 0.00 0.00 0.00 0.00 0.00 0.00 0.00 0.00 0.00 0.00
0.00 0.00 0.00 0.00 0.06 0.24 0.13 0.03 0.05 0.04 0.04 0.09 0.22 0.66 0.55 0.31 0.35 0.45 0.49 0.41 0.67 0.96 1.50 1.62 1.43 0.77 0.25 0.08 0.05 0.00 0.00 0.00 0.00 0.00 0.00 0.00 0.00 0.00 0.00 0.00 0.00 0.00 0.00 0.00 0.00 0.00 0.00 0.00 0.00
0.00 0.00 0.00 0.02 0.11 0.04 0.02 0.06 0.02 0.11 0.12 0.15 0.77 0.43 0.37 0.43 0.47 0.60 0.87 0.41 0.19 0.28 0.44 0.55 0.80 0.63 0.29 0.08 0.03 0.00 0.00 0.00 0.00 0.00 0.00 0.00 0.00 0.00 0.00 0.00 0.01 0.00 0.00 0.00 0.00 0.00 0.00 0.00 0.00
0.00 0.00 0.00 0.01 0.01 0.01 0.00 0.00 0.02 0.14 0.54 0.23 0.30 0.37 0.45 0.73 0.59 0.23 0.18 0.16 0.09 0.06 0.17 0.20 0.28 0.29 0.16 0.07 0.01 0.00 0.00 0.01 0.04 0.01 0.00 0.01 0.01 0.00 0.00 0.00 0.00 0.00 0.00 0.00 0.00 0.00 0.00 0.00 0.00
0.00 0.00 0.00 0.01 0.04 0.03 0.00 0.04 0.06 0.03 0.03 0.11 0.16 0.32 0.50 0.52 0.15 0.05 0.07 0.05 0.02 0.01 0.03 0.08 0.11 0.07 0.06 0.02 0.00 0.00 0.03 0.04 0.06 0.05 0.05 0.02 0.01 0.00 0.00 0.00 0.00 0.00 0.00 0.00 0.00 0.00 0.00 0.00 0.00
0.00 0.00 0.00 0.00 0.01 0.01 0.02 0.02 0.01 0.02 0.07 0.11 0.11 0.27 0.26 0.11 0.04 0.03 0.03 0.03 0.01 0.01 0.01 0.01 0.02 0.03 0.03 0.01 0.01 0.07 0.15 0.21 0.20 0.18 0.15 0.13 0.08 0.05 0.03 0.01 0.00 0.01 0.01 0.00 0.00 0.00 0.00 0.00 0.00
0.00 0.00 0.02 0.03 0.01 0.00 0.01 0.01 0.00 0.01 0.03 0.04 0.03 0.04 0.05 0.06 0.07 0.02 0.02 0.03 0.00 0.00 0.01 0.03 0.07 0.08 0.05 0.07 0.09 0.28 0.31 0.21 0.12 0.20 0.32 0.27 0.13 0.06 0.02 0.01 0.01 0.01 0.00 0.00 0.00 0.00 0.00 0.00 0.00
0.00 0.00 0.01 0.04 0.03 0.02 0.01 0.00 0.00 0.01 0.00 0.01 0.01 0.00 0.01 0.00 0.00 0.00 0.00 0.00 0.00 0.00 0.01 0.08 0.22 0.29 0.31 0.37 0.38 0.72 0.49 0.20 0.14 0.22 0.20 0.11 0.07 0.04 0.01 0.00 0.00 0.00 0.00 0.00 0.00 0.00 0.00 0.00 0.00
0.00 0.00 0.00 0.01 0.01 0.01 0.00 0.00 0.01 0.01 0.05 0.07 0.02 0.01 0.01 0.01 0.01 0.00 0.03 0.01 0.04 0.02 0.04 0.10 0.32 0.66 0.76 0.56 0.84 0.56 0.12 0.06 0.06 0.12 0.09 0.07 0.03 0.01 0.00 0.00 0.00 0.00 0.00 0.00 0.00 0.00 0.00 0.00 0.00
0.00 0.00 0.00 0.00 0.00 0.00 0.00 0.00 0.00 0.01 0.05 0.27 0.09 0.04 0.04 0.00 0.01 0.03 0.07 0.07 0.07 0.05 0.10 0.37 0.47 0.74 0.75 0.42 0.29 0.11 0.07 0.10 0.07 0.05 0.02 0.01 0.00 0.00 0.00 0.00 0.00 0.00 0.00 0.00 0.00 0.00 0.00 0.00 0.00
0.00 0.00 0.00 0.00 0.00 0.00 0.00 0.00 0.00 0.00 0.00 0.03 0.05 0.07 0.02 0.00 0.03 0.05 0.07 0.09 0.07 0.08 0.18 0.39 0.47 0.60 0.31 0.09 0.04 0.05 0.10 0.11 0.07 0.02 0.00 0.00 0.00 0.00 0.00 0.00 0.00 0.00 0.00 0.00 0.00 0.00 0.00 0.00 0.00
0.00 0.00 0.00 0.00 0.00 0.00 0.00 0.00 0.00 0.00 0.00 0.01 0.01 0.11 0.03 0.00 0.01 0.02 0.04 0.03 0.04 0.11 0.36 0.43 0.23 0.14 0.03 0.02 0.01 0.03 0.07 0.07 0.03 0.00 0.00 0.00 0.00 0.00 0.00 0.00 0.00 0.00 0.00 0.00 0.00 0.00 0.00 0.00 0.00
0.00 0.00 0.00 0.00 0.00 0.00 0.00 0.00 0.00 0.00 0.00 0.01 0.00 0.00 0.00 0.00 0.02 0.03 0.03 0.03 0.01 0.02 0.18 0.18 0.06 0.05 0.03 0.02 0.02 0.03 0.09 0.12 0.05 0.01 0.00 0.00 0.00 0.00 0.00 0.00 0.00 0.00 0.00 0.00 0.00 0.00 0.00 0.00 0.00
0.00 0.00 0.00 0.00 0.00 0.00 0.00 0.00 0.00 0.00 0.00 0.00 0.00 0.00 0.00 0.00 0.00 0.00 0.00 0.00 0.01 0.06 0.25 0.11 0.10 0.10 0.09 0.08 0.06 0.06 0.13 0.13 0.12 0.08 0.03 0.02 0.01 0.00 0.00 0.00 0.00 0.00 0.00 0.00 0.00 0.00 0.00 0.00 0.00
0.00 0.00 0.00 0.00 0.00 0.04 0.02 0.00 0.03 0.05 0.00 0.00 0.00 0.00 0.00 0.00 0.00 0.00 0.00 0.00 0.02 0.07 0.20 0.15 0.12 0.20 0.14 0.22 0.25 0.18 0.21 0.20 0.11 0.04 0.03 0.03 0.03 0.01 0.00 0.00 0.00 0.00 0.00 0.00 0.00 0.00 0.00 0.00 0.00
0.00 0.00 0.00 0.00 0.00 0.01 0.01 0.01 0.00 0.00 0.00 0.01 0.00 0.00 0.00 0.00 0.00 0.00 0.00 0.01 0.03 0.11 0.17 0.29 0.31 0.21 0.19 0.32 0.36 0.20 0.17 0.14 0.10 0.06 0.03 0.02 0.02 0.02 0.01 0.00 0.00 0.00 0.00 0.00 0.00 0.00 0.00 0.00 0.00
0.00 0.00 0.00 0.03 0.00 0.00 0.00 0.01 0.01 0.01 0.04 0.08 0.10 0.00 0.00 0.00 0.00 0.00 0.02 0.04 0.04 0.08 0.13 0.18 0.32 0.41 0.26 0.23 0.19 0.12 0.11 0.12 0.09 0.06 0.07 0.06 0.05 0.04 0.02 0.00 0.00 0.00 0.00 0.00 0.01 0.00 0.00 0.01 0.00
0.00 0.00 0.00 0.06 0.06 0.01 0.03 0.01 0.00 0.00 0.00 0.00 0.00 0.00 0.00 0.00 0.00 0.00 0.01 0.02 0.05 0.11 0.08 0.06 0.29 0.41 0.47 0.29 0.13 0.09 0.06 0.04 0.03 0.03 0.06 0.04 0.03 0.01 0.00 0.00 0.00 0.00 0.01 0.01 0.01 0.01 0.02 0.01 0.00
0.00 0.00 0.00 0.01 0.04 0.01 0.01 0.00 0.00 0.00 0.00 0.00 0.00 0.00 0.00 0.00 0.00 0.00 0.00 0.01 0.04 0.07 0.05 0.09 0.09 0.25 0.37 0.21 0.07 0.03 0.02 0.04 0.06 0.08 0.05 0.04 0.03 0.01 0.00 0.00 0.01 0.02 0.01 0.00 0.02 0.02 0.01 0.01 0.01
0.00 0.00 0.00 0.00 0.00 0.00 0.00 0.00 0.00 0.00 0.00 0.00 0.00 0.00 0.00 0.00 0.00 0.00 0.00 0.00 0.01 0.01 0.01 0.06 0.04 0.02 0.09 0.15 0.10 0.03 0.04 0.06 0.07 0.08 0.10 0.08 0.04 0.01 0.00 0.01 0.02 0.01 0.02 0.03 0.02 0.01 0.00 0.00 0.00
0.00 0.00 0.00 0.00 0.00 0.00 0.00 0.00 0.00 0.00 0.00 0.00 0.00 0.00 0.00 0.00 0.00 0.00 0.00 0.00 0.00 0.00 0.00 0.00 0.00 0.01 0.01 0.01 0.02 0.05 0.09 0.11 0.13 0.13 0.14 0.10 0.04 0.01 0.01 0.01 0.01 0.01 0.01 0.00 0.01 0.02 0.00 0.01 0.01
0.00 0.01 0.04 0.00 0.00 0.00 0.00 0.00 0.00 0.00 0.00 0.00 0.00 0.00 0.00 0.00 0.00 0.00 0.00 0.00 0.00 0.00 0.00 0.01 0.03 0.03 0.04 0.05 0.08 0.12 0.14 0.16 0.12 0.10 0.08 0.06 0.03 0.02 0.01 0.01 0.01 0.00 0.00 0.01 0.02 0.01 0.01 0.01 0.01

GFSSGP_prec_precacc_039.txt.gz
Total_Precipitation_Accumulation
0.00 0.00 0.00 0.00 0.00 0.00 0.00 0.00 0.00 0.00 0.03 0.08 0.08 0.08 0.10 0.16 0.29 0.45 0.30 0.44 0.27 0.20 0.15 0.07 0.14 0.10 0.01 0.00 0.00 0.00 0.00 0.00 0.00 0.00 0.00 0.00 0.00 0.00 0.00 0.00 0.00 0.00 0.00 0.00 0.00 0.00 0.00 0.00 0.00
0.00 0.00 0.00 0.00 0.00 0.00 0.00 0.00 0.00 0.01 0.10 0.16 0.22 0.22 0.23 0.36 0.26 0.35 0.34 0.41 0.25 0.29 0.27 0.17 0.19 0.22 0.09 0.05 0.05 0.04 0.01 0.00 0.00 0.00 0.00 0.00 0.00 0.00 0.00 0.00 0.00 0.00 0.00 0.00 0.00 0.00 0.00 0.00 0.00
0.00 0.00 0.00 0.00 0.00 0.00 0.00 0.00 0.02 0.05 0.11 0.12 0.17 0.22 0.30 0.54 0.41 0.48 0.29 0.48 0.60 0.52 0.47 0.24 0.23 0.25 0.27 0.21 0.19 0.12 0.04 0.00 0.00 0.00 0.00 0.00 0.00 0.00 0.00 0.00 0.00 0.00 0.00 0.00 0.00 0.00 0.00 0.00 0.00
0.00 0.00 0.00 0.00 0.00 0.00 0.00 0.01 0.03 0.06 0.08 0.06 0.07 0.16 0.20 0.73 0.72 0.71 0.56 0.95 1.23 1.14 0.86 0.43 0.42 0.31 0.41 0.38 0.23 0.08 0.01 0.00 0.00 0.00 0.00 0.00 0.00 0.00 0.00 0.00 0.00 0.00 0.00 0.00 0.00 0.00 0.00 0.00 0.00
0.00 0.00 0.00 0.00 0.00 0.00 0.00 0.01 0.06 0.17 0.30 0.25 0.10 0.14 0.16 0.34 0.37 0.78 1.28 1.80 2.00 1.93 1.80 0.92 1.16 0.88 0.69 0.46 0.18 0.05 0.00 0.00 0.00 0.00 0.00 0.00 0.00 0.00 0.00 0.00 0.00 0.00 0.00 0.00 0.00 0.00 0.00 0.00 0.00
0.00 0.00 0.00 0.00 0.00 0.00 0.01 0.05 0.15 0.25 0.27 0.15 0.06 0.12 0.28 0.58 0.34 0.78 1.17 2.16 3.02 1.88 1.93 1.57 1.87 2.29 1.33 0.38 0.08 0.00 0.00 0.00 0.00 0.00 0.00 0.00 0.00 0.00 0.00 0.00 0.00 0.00 0.00 0.00 0.00 0.00 0.00 0.00 0.00
0.00 0.00 0.00 0.00 0.00 0.01 0.02 0.07 0.19 0.14 0.05 0.02 0.11 0.39 0.68 0.57 0.57 0.72 1.46 3.01 4.54 5.10 4.63 4.22 2.87 2.28 1.15 0.23 0.01 0.00 0.00 0.00 0.00 0.00 0.00 0.00 0.00 0.00 0.00 0.00 0.00 0.00 0.00 0.00 0.00 0.00 0.00 0.00 0.00
0.00 0.00 0.00 0.00 0.00 0.07 0.12 0.21 0.12 0.07 0.05 0.18 0.09 0.38 0.26 0.81 0.60 0.49 0.86 1.97 3.34 6.49 6.00 6.08 5.12 2.52 0.86 0.21 0.02 0.00 0.00 0.00 0.00 0.00 0.00 0.00 0.00 0.00 0.00 0.00 0.00 0.00 0.00 0.00 0.00 0.00 0.00 0.00 0.00
0.00 0.00 0.00 0.00 0.01 0.15 0.23 0.07 0.09 0.08 0.02 0.10 0.27 0.41 0.40 0.67 0.37 0.42 0.51 1.13 1.82 3.21 3.26 3.09 2.93 1.95 0.57 0.18 0.09 0.01 0.00 0.00 0.00 0.00 0.00 0.00 0.00 0.00 0.00 0.00 0.00 0.00 0.00 0.00 0.00 0.00 0.00 0.00 0.00
0.00 0.00 0.00 0.00 0.06 0.24 0.13 0.03 0.05 0.04 0.04 0.10 0.22 0.67 0.56 0.33 0.37 0.45 0.49 0.42 0.78 1.09 1.70 1.78 1.54 0.83 0.30 0.09 0.10 0.02 0.00 0.00 0.00 0.00 0.00 0.00 0.00 0.00 0.00 0.00 0.00 0.00 0.00 0.00 0.00 0.00 0.00 0.00 0.00
0.00 0.00 0.00 0.02 0.11 0.04 0.02 0.06 0.02 0.11 0.13 0.17 0.79 0.45 0.38 0.46 0.49 0.60 0.87 0.41 0.22 0.33 0.57 0.70 0.87 0.67 0.31 0.09 0.06 0.07 0.01 0.00 0.00 0.00 0.00 0.00 0.00 0.00 0.00 0.00 0.01 0.00 0.00 0.00 0.00 0.00 0.00 0.00 0.00
0.00 0.00 0.00 0.01 0.01 0.01 0.00 0.00 0.02 0.14 0.56 0.23 0.31 0.38 0.45 0.74 0.60 0.23 0.18 0.16 0.09 0.07 0.27 0.34 0.35 0.34 0.21 0.12 0.12 0.07 0.02 0.01 0.04 0.01 0.00 0.01 0.01 0.00 0.00 0.00 0.00 0.00 0.00 0.00 0.00 0.00 0.00 0.00 0.00
0.00 0.00 0.00 0.01 0.04 0.03 0.00 0.04 0.06 0.04 0.03 0.11 0.16 0.37 0.53 0.54 0.15 0.06 0.07 0.05 0.04 0.06 0.05 0.20 0.25 0.13 0.10 0.08 0.07 0.05 0.04 0.04 0.06 0.05 0.05 0.02 0.01 0.00 0.00 0.00 0.00 0.00 0.00 0.00 0.00 0.00 0.00 0.00 0.00
0.00 0.00 0.00 0.00 0.01 0.01 0.02 0.02 0.02 0.03 0.07 0.11 0.12 0.32 0.49 0.23 0.05 0.03 0.04 0.04 0.02 0.03 0.06 0.09 0.11 0.11 0.08 0.04 0.03 0.09 0.15 0.21 0.20 0.18 0.15 0.13 0.08 0.05 0.03 0.01 0.00 0.01 0.01 0.00 0.00 0.00 0.00 0.00 0.00
0.00 0.00 0.02 0.03 0.01 0.00 0.03 0.08 0.00 0.01 0.03 0.04 0.03 0.04 0.32 0.45 0.13 0.03 0.02 0.03 0.01 0.01 0.03 0.07 0.10 0.12 0.09 0.11 0.12 0.28 0.31 0.21 0.12 0.20 0.32 0.27 0.13 0.06 0.02 0.01 0.01 0.01 0.00 0.00 0.00 0.00 0.00 0.00 0.00
0.00 0.00 0.01 0.04 0.03 0.02 0.13 0.28 0.00 0.01 0.00 0.01 0.01 0.00 0.05 0.07 0.02 0.01 0.01 0.00 0.00 0.00 0.01 0.09 0.22 0.31 0.34 0.39 0.38 0.72 0.49 0.20 0.14 0.22 0.21 0.12 0.07 0.04 0.01 0.00 0.00 0.00 0.00 0.00 0.00 0.00 0.00 0.00 0.00
0.00 0.00 0.00 0.01 0.01 0.01 0.03 0.07 0.01 0.01 0.05 0.07 0.02 0.01 0.01 0.01 0.01 0.00 0.03 0.01 0.04 0.02 0.04 0.10 0.33 0.70 0.79 0.59 0.85 0.56 0.12 0.06 0.07 0.13 0.12 0.08 0.04 0.01 0.00 0.00 0.00 0.00 0.00 0.00 0.00 0.00 0.00 0.00 0.00
0.00 0.00 0.00 0.02 0.00 0.00 0.00 0.00 0.00 0.01 0.05 0.27 0.09 0.04 0.04 0.00 0.01 0.03 0.07 0.07 0.07 0.05 0.10 0.37 0.48 0.76 0.77 0.45 0.30 0.11 0.07 0.11 0.10 0.09 0.06 0.02 0.00 0.00 0.00 0.00 0.00 0.00 0.00 0.00 0.00 0.00 0.00 0.00 0.00
0.00 0.00 0.00 0.00 0.00 0.00 0.00 0.00 0.00 0.00 0.00 0.03 0.05 0.07 0.02 0.00 0.03 0.05 0.07 0.09 0.07 0.08 0.18 0.39 0.47 0.61 0.36 0.11 0.04 0.05 0.10 0.13 0.11 0.10 0.08 0.02 0.00 0.00 0.00 0.00 0.00 0.00 0.00 0.00 0.00 0.00 0.00 0.00 0.00
0.00 0.00 0.00 0.00 0.00 0.00 0.00 0.00 0.00 0.00 0.00 0.01 0.01 0.11 0.03 0.00 0.01 0.02 0.04 0.03 0.04 0.11 0.36 0.43 0.23 0.14 0.07 0.02 0.01 0.03 0.07 0.07 0.04 0.04 0.04 0.01 0.00 0.00 0.00 0.00 0.00 0.00 0.00 0.00 0.00 0.00 0.00 0.00 0.00
0.00 0.00 0.00 0.00 0.00 0.00 0.00 0.00 0.00 0.00 0.00 0.01 0.00 0.00 0.00 0.00 0.02 0.03 0.03 0.03 0.01 0.02 0.18 0.18 0.06 0.05 0.07 0.02 0.02 0.03 0.09 0.13 0.07 0.03 0.01 0.01 0.00 0.00 0.00 0.00 0.00 0.00 0.00 0.00 0.00 0.00 0.00 0.00 0.00
0.00 0.00 0.00 0.00 0.00 0.00 0.00 0.00 0.00 0.00 0.00 0.00 0.00 0.00 0.00 0.00 0.00 0.00 0.00 0.00 0.01 0.06 0.25 0.11 0.10 0.10 0.10 0.09 0.06 0.06 0.13 0.14 0.13 0.09 0.04 0.03 0.03 0.01 0.01 0.00 0.00 0.00 0.00 0.00 0.00 0.00 0.00 0.00 0.00
0.00 0.00 0.00 0.00 0.00 0.04 0.02 0.00 0.03 0.05 0.00 0.00 0.00 0.00 0.00 0.00 0.00 0.00 0.00 0.00 0.02 0.07 0.20 0.15 0.12 0.20 0.14 0.24 0.25 0.18 0.21 0.20 0.16 0.05 0.03 0.04 0.05 0.04 0.03 0.02 0.01 0.00 0.00 0.00 0.00 0.00 0.00 0.00 0.00
0.00 0.00 0.00 0.00 0.00 0.01 0.01 0.01 0.00 0.00 0.00 0.01 0.00 0.00 0.00 0.00 0.00 0.00 0.00 0.01 0.03 0.11 0.17 0.29 0.31 0.21 0.19 0.34 0.38 0.21 0.18 0.17 0.20 0.11 0.05 0.05 0.03 0.04 0.04 0.03 0.02 0.00 0.00 0.00 0.00 0.00 0.00 0.00 0.00
0.00 0.00 0.00 0.04 0.00 0.00 0.00 0.01 0.01 0.01 0.04 0.08 0.10 0.00 0.00 0.00 0.00 0.00 0.02 0.04 0.04 0.08 0.13 0.18 0.32 0.41 0.27 0.25 0.22 0.19 0.15 0.14 0.12 0.11 0.13 0.11 0.08 0.06 0.04 0.02 0.01 0.00 0.00 0.00 0.01 0.00 0.00 0.01 0.00
0.00 0.00 0.01 0.08 0.06 0.01 0.03 0.01 0.00 0.00 0.00 0.00 0.00 0.00 0.00 0.00 0.00 0.00 0.01 0.02 0.05 0.11 0.08 0.06 0.29 0.41 0.48 0.33 0.15 0.10 0.07 0.05 0.06 0.13 0.14 0.08 0.05 0.03 0.03 0.01 0.00 0.00 0.01 0.01 0.01 0.01 0.02 0.01 0.00
0.00 0.00 0.00 0.01 0.04 0.01 0.01 0.00 0.00 0.00 0.00 0.00 0.00 0.00 0.00 0.00 0.00 0.00 0.00 0.01 0.04 0.07 0.05 0.09 0.09 0.25 0.37 0.24 0.11 0.06 0.02 0.04 0.06 0.08 0.06 0.06 0.04 0.02 0.02 0.01 0.01 0.03 0.01 0.00 0.02 0.02 0.01 0.01 0.01
0.00 0.00 0.00 0.00 0.01 0.01 0.00 0.00 0.00 0.00 0.00 0.00 0.00 0.00 0.00 0.00 0.00 0.00 0.00 0.00 0.01 0.01 0.01 0.06 0.04 0.02 0.11 0.22 0.23 0.07 0.04 0.06 0.07 0.09 0.14 0.11 0.07 0.04 0.02 0.01 0.02 0.01 0.02 0.03 0.02 0.01 0.00 0.00 0.00
0.00 0.00 0.00 0.00 0.00 0.00 0.00 0.00 0.00 0.00 0.00 0.00 0.00 0.00 0.00 0.00 0.00 0.00 0.00 0.00 0.00 0.00 0.00 0.00 0.00 0.01 0.01 0.02 0.10 0.07 0.09 0.12 0.14 0.14 0.15 0.11 0.05 0.03 0.01 0.01 0.01 0.02 0.02 0.00 0.01 0.02 0.00 0.01 0.01
0.00 0.01 0.04 0.00 0.00 0.00 0.00 0.00 0.00 0.00 0.00 0.00 0.00 0.00 0.00 0.00 0.00 0.00 0.00 0.00 0.00 0.00 0.00 0.01 0.03 0.03 0.04 0.06 0.09 0.12 0.14 0.17 0.14 0.11 0.09 0.07 0.04 0.02 0.02 0.02 0.01 0.01 0.00 0.01 0.02 0.01 0.01 0.01 0.02

GFSSGP_prec_precacc_042.txt.gz
Total_Precipitation_Accumulation
0.00 0.00 0.00 0.00 0.00 0.00 0.00 0.00 0.00 0.00 0.03 0.09 0.09 0.18 0.14 0.19 0.31 0.49 0.44 1.03 1.47 0.63 0.16 0.08 0.15 0.10 0.01 0.00 0.00 0.00 0.00 0.00 0.00 0.00 0.00 0.00 0.00 0.00 0.00 0.00 0.00 0.00 0.00 0.00 0.00 0.00 0.00 0.00 0.00
0.00 0.00 0.00 0.00 0.00 0.00 0.00 0.00 0.00 0.01 0.10 0.30 0.29 0.33 0.32 0.80 0.49 0.45 0.48 0.59 0.39 0.38 0.29 0.22 0.21 0.24 0.09 0.05 0.05 0.04 0.01 0.00 0.00 0.00 0.00 0.00 0.00 0.00 0.00 0.00 0.00 0.00 0.00 0.00 0.00 0.00 0.00 0.00 0.00
0.00 0.00 0.00 0.00 0.00 0.00 0.00 0.00 0.02 0.05 0.11 0.13 0.17 0.22 0.39 1.16 0.71 0.58 0.40 0.72 0.90 0.71 0.52 0.33 0.33 0.35 0.30 0.21 0.19 0.12 0.04 0.00 0.00 0.00 0.00 0.00 0.00 0.00 0.00 0.00 0.00 0.00 0.00 0.00 0.00 0.00 0.00 0.00 0.00
0.00 0.00 0.00 0.00 0.00 0.00 0.00 0.01 0.03 0.06 0.08 0.07 0.07 0.23 0.31 0.77 0.77 0.75 0.63 1.18 1.70 1.50 1.00 0.57 0.54 0.44 0.50 0.39 0.23 0.08 0.01 0.00 0.00 0.00 0.00 0.00 0.00 0.00 0.00 0.00 0.00 0.00 0.00 0.00 0.00 0.00 0.00 0.00 0.00
0.00 0.00 0.00 0.00 0.00 0.00 0.00 0.01 0.06 0.17 0.42 0.39 0.10 0.30 0.57 0.38 0.39 0.80 1.33 1.93 2.23 2.38 2.05 1.10 1.27 0.96 0.77 0.48 0.18 0.05 0.00 0.00 0.00 0.00 0.00 0.00 0.00 0.00 0.00 0.00 0.00 0.00 0.00 0.00 0.00 0.00 0.00 0.00 0.00
0.00 0.00 0.00 0.00 0.00 0.00 0.01 0.06 0.15 0.25 0.28 0.18 0.10 0.45 0.86 0.64 0.38 0.85 1.26 2.30 3.25 2.02 2.13 1.99 2.05 2.36 1.34 0.40 0.08 0.00 0.00 0.00 0.00 0.00 0.00 0.00 0.00 0.00 0.00 0.00 0.00 0.00 0.00 0.00 0.00 0.00 0.00 0.00 0.00
0.00 0.00 0.00 0.00 0.00 0.01 0.11 0.16 0.19 0.16 0.09 0.18 0.23 0.63 0.85 0.63 0.72 0.76 1.56 3.26 4.80 5.44 5.07 4.38 3.42 2.48 1.22 0.25 0.01 0.00 0.00 0.00 0.00 0.00 0.00 0.00 0.00 0.00 0.00 0.00 0.00 0.00 0.00 0.00 0.00 0.00 0.00 0.00 0.00
0.00 0.00 0.00 0.00 0.00 0.07 0.19 0.23 0.12 0.08 0.11 0.44 0.15 0.44 0.34 0.88 0.71 0.55 0.95 2.11 3.56 6.97 7.32 6.74 5.47 2.98 1.04 0.23 0.02 0.00 0.00 0.00 0.00 0.00 0.00 0.00 0.00 0.00 0.00 0.00 0.00 0.00 0.00 0.00 0.00 0.00 0.00 0.00 0.00
0.00 0.00 0.00 0.00 0.01 0.15 0.23 0.07 0.21 0.12 0.03 0.11 0.28 0.47 0.50 0.76 0.40 0.48 0.55 1.18 1.93 3.53 3.76 3.43 3.18 2.28 0.97 0.24 0.11 0.01 0.00 0.00 0.00 0.00 0.00 0.00 0.00 0.00 0.00 0.00 0.00 0.00 0.00 0.00 0.00 0.00 0.00 0.00 0.00
0.00 0.00 0.00 0.00 0.06 0.24 0.13 0.03 0.17 0.06 0.04 0.20 0.34 0.68 0.58 0.34 0.38 0.47 0.50 0.44 0.84 1.23 1.81 1.92 1.68 0.94 0.35 0.11 0.12 0.06 0.01 0.00 0.00 0.00 0.00 0.00 0.00 0.00 0.00 0.00 0.00 0.00 0.00 0.00 0.00 0.00 0.00 0.00 0.00
0.00 0.00 0.00 0.02 0.11 0.04 0.02 0.07 0.06 0.12 0.16 0.41 1.12 0.47 0.38 0.47 0.52 0.64 0.89 0.41 0.24 0.40 0.65 0.81 1.00 0.79 0.37 0.11 0.06 0.09 0.04 0.00 0.00 0.00 0.00 0.00 0.00 0.00 0.00 0.00 0.01 0.00 0.00 0.00 0.00 0.00 0.00 0.00 0.00
0.00 0.00 0.00 0.01 0.01 0.01 0.00 0.01 0.05 0.17 0.61 0.27 0.32 0.38 0.46 0.74 0.61 0.26 0.18 0.16 0.09 0.12 0.41 0.42 0.40 0.37 0.24 0.13 0.13 0.10 0.07 0.03 0.05 0.01 0.00 0.01 0.01 0.00 0.00 0.00 0.00 0.00 0.00 0.00 0.00 0.00 0.00 0.00 0.00
0.00 0.00 0.00 0.01 0.04 0.03 0.00 0.04 0.06 0.04 0.03 0.11 0.16 0.37 0.53 0.55 0.15 0.06 0.07 0.06 0.05 0.08 0.13 0.35 0.32 0.18 0.11 0.08 0.11 0.15 0.11 0.09 0.07 0.05 0.05 0.02 0.01 0.00 0.00 0.00 0.00 0.00 0.00 0.00 0.00 0.00 0.00 0.00 0.00
0.00 0.00 0.00 0.00 0.01 0.01 0.02 0.05 0.07 0.15 0.07 0.11 0.12 0.32 0.56 0.56 0.08 0.03 0.04 0.04 0.02 0.05 0.11 0.14 0.22 0.22 0.19 0.10 0.06 0.13 0.18 0.23 0.21 0.18 0.15 0.13 0.08 0.05 0.03 0.01 0.00 0.01 0.01 0.00 0.00 0.00 0.00 0.00 0.00
0.00 0.00 0.02 0.03 0.01 0.00 0.05 0.19 0.33 0.10 0.04 0.04 0.03 0.04 0.36 0.86 0.23 0.04 0.02 0.03 0.01 0.01 0.05 0.12 0.19 0.21 0.16 0.19 0.20 0.31 0.32 0.21 0.12 0.20 0.33 0.27 0.13 0.06 0.02 0.01 0.01 0.01 0.00 0.00 0.00 0.00 0.00 0.00 0.00
0.00 0.00 0.01 0.04 0.03 0.02 0.15 0.48 0.05 0.03 0.01 0.02 0.01 0.00 0.06 0.10 0.02 0.01 0.01 0.00 0.00 0.00 0.02 0.09 0.26 0.37 0.39 0.44 0.44 0.78 0.51 0.20 0.14 0.22 0.21 0.12 0.07 0.04 0.01 0.01 0.00 0.00 0.00 0.00 0.00 0.00 0.00 0.00 0.00
0.00 0.00 0.00 0.01 0.01 0.01 0.05 0.33 0.12 0.04 0.05 0.07 0.02 0.01 0.01 0.01 0.01 0.00 0.03 0.01 0.04 0.02 0.04 0.10 0.33 0.70 0.80 0.61 0.87 0.56 0.12 0.06 0.07 0.13 0.14 0.10 0.05 0.04 0.01 0.01 0.00 0.00 0.00 0.00 0.00 0.00 0.00 0.00 0.00
0.00 0.00 0.00 0.02 0.00 0.00 0.01 0.03 0.24 0.10 0.05 0.27 0.09 0.04 0.04 0.00 0.01 0.03 0.07 0.07 0.07 0.05 0.10 0.37 0.48 0.77 0.78 0.46 0.31 0.12 0.07 0.11 0.11 0.11 0.15 0.07 0.00 0.00 0.00 0.03 0.00 0.00 0.00 0.00 0.00 0.00 0.00 0.00 0.00
0.00 0.00 0.00 0.00 0.00 0.00 0.00 0.00 0.01 0.00 0.00 0.03 0.05 0.07 0.02 0.00 0.03 0.05 0.07 0.09 0.07 0.08 0.18 0.39 0.47 0.62 0.37 0.13 0.05 0.05 0.10 0.13 0.11 0.14 0.15 0.11 0.02 0.00 0.00 0.01 0.00 0.00 0.00 0.00 0.00 0.00 0.00 0.00 0.00
0.00 0.00 0.00 0.00 0.00 0.00 0.00 0.00 0.00 0.00 0.00 0.01 0.01 0.11 0.03 0.00 0.01 0.02 0.04 0.03 0.04 0.11 0.36 0.43 0.23 0.15 0.07 0.02 0.01 0.03 0.07 0.07 0.04 0.05 0.06 0.04 0.06 0.02 0.00 0.02 0.02 0.00 0.00 0.00 0.00 0.00 0.00 0.00 0.00
0.00 0.00 0.00 0.00 0.00 0.00 0.00 0.00 0.00 0.00 0.00 0.01 0.00 0.00 0.00 0.00 0.02 0.03 0.03 0.03 0.01 0.02 0.18 0.18 0.06 0.05 0.08 0.02 0.02 0.03 0.09 0.13 0.07 0.04 0.10 0.06 0.07 0.04 0.01 0.00 0.00 0.00 0.00 0.00 0.00 0.00 0.00 0.00 0.00
0.00 0.00 0.00 0.00 0.00 0.00 0.00 0.00 0.00 0.00 0.00 0.00 0.00 0.00 0.00 0.00 0.00 0.00 0.00 0.00 0.01 0.06 0.25 0.11 0.10 0.10 0.11 0.09 0.06 0.06 0.13 0.14 0.13 0.10 0.05 0.06 0.03 0.03 0.03 0.01 0.00 0.00 0.00 0.00 0.00 0.00 0.00 0.00 0.00
0.00 0.00 0.00 0.00 0.00 0.04 0.02 0.00 0.03 0.05 0.00 0.00 0.00 0.00 0.00 0.00 0.00 0.00 0.00 0.00 0.02 0.07 0.20 0.15 0.12 0.20 0.14 0.25 0.27 0.19 0.21 0.20 0.19 0.09 0.04 0.04 0.05 0.06 0.06 0.02 0.03 0.02 0.01 0.00 0.00 0.00 0.00 0.00 0.00
0.00 0.00 0.00 0.00 0.00 0.01 0.01 0.01 0.01 0.01 0.00 0.01 0.00 0.00 0.00 0.00 0.00 0.00 0.00 0.01 0.03 0.11 0.17 0.29 0.31 0.21 0.19 0.34 0.40 0.23 0.21 0.17 0.27 0.25 0.10 0.08 0.05 0.04 0.05 0.04 0.03 0.03 0.01 0.01 0.00 0.00 0.00 0.00 0.00
0.00 0.00 0.00 0.05 0.00 0.00 0.00 0.01 0.01 0.01 0.04 0.08 0.10 0.00 0.00 0.00 0.00 0.00 0.02 0.04 0.04 0.08 0.13 0.18 0.32 0.41 0.27 0.25 0.23 0.21 0.17 0.18 0.15 0.16 0.20 0.18 0.11 0.10 0.10 0.05 0.03 0.03 0.02 0.01 0.01 0.00 0.01 0.01 0.00
0.00 0.00 0.01 0.15 0.09 0.03 0.04 0.01 0.00 0.00 0.00 0.00 0.00 0.00 0.00 0.00 0.00 0.00 0.01 0.02 0.05 0.11 0.08 0.06 0.29 0.41 0.48 0.33 0.16 0.14 0.08 0.06 0.07 0.13 0.18 0.12 0.09 0.08 0.08 0.04 0.02 0.01 0.02 0.01 0.01 0.02 0.02 0.01 0.00
0.00 0.00 0.00 0.03 0.09 0.04 0.03 0.00 0.00 0.00 0.00 0.00 0.00 0.00 0.00 0.00 0.00 0.00 0.00 0.01 0.04 0.07 0.05 0.09 0.09 0.25 0.37 0.24 0.12 0.06 0.03 0.04 0.06 0.08 0.07 0.06 0.05 0.05 0.05 0.03 0.03 0.04 0.02 0.01 0.02 0.02 0.01 0.01 0.01
0.00 0.00 0.00 0.00 0.03 0.03 0.00 0.00 0.01 0.01 0.00 0.00 0.00 0.00 0.00 0.00 0.00 0.00 0.00 0.00 0.01 0.01 0.01 0.06 0.04 0.03 0.12 0.23 0.23 0.07 0.05 0.07 0.08 0.09 0.14 0.11 0.08 0.06 0.05 0.04 0.03 0.02 0.02 0.04 0.02 0.01 0.00 0.00 0.00
0.00 0.00 0.00 0.00 0.00 0.01 0.02 0.00 0.00 0.00 0.00 0.00 0.00 0.00 0.00 0.00 0.00 0.00 0.00 0.00 0.00 0.00 0.00 0.00 0.00 0.10 0.06 0.05 0.10 0.09 0.10 0.12 0.14 0.14 0.15 0.11 0.06 0.03 0.02 0.01 0.01 0.02 0.02 0.01 0.01 0.02 0.00 0.01 0.01
0.00 0.01 0.04 0.01 0.00 0.00 0.01 0.00 0.00 0.00 0.00 0.00 0.00 0.00 0.00 0.00 0.00 0.00 0.00 0.00 0.00 0.00 0.00 0.01 0.03 0.11 0.09 0.07 0.12 0.22 0.19 0.18 0.14 0.13 0.10 0.07 0.04 0.02 0.02 0.02 0.01 0.01 0.00 0.01 0.02 0.02 0.01 0.01 0.02

GFSSGP_prec_precacc_045.txt.gz
Total_Precipitation_Accumulation
0.00 0.00 0.00 0.00 0.00 0.00 0.00 0.00 0.00 0.00 0.03 0.09 0.09 0.18 0.14 0.19 0.32 0.54 0.49 1.04 1.58 1.53 1.45 0.87 0.25 0.11 0.01 0.00 0.00 0.00 0.00 0.00 0.00 0.00 0.00 0.00 0.00 0.00 0.00 0.00 0.00 0.00 0.00 0.00 0.00 0.00 0.00 0.00 0.00
0.00 0.00 0.00 0.00 0.00 0.00 0.00 0.00 0.00 0.01 0.10 0.30 0.29 0.33 0.32 0.81 0.54 0.55 0.57 0.64 0.40 0.43 0.45 1.18 0.58 0.28 0.10 0.05 0.05 0.04 0.01 0.00 0.00 0.00 0.00 0.00 0.00 0.00 0.00 0.00 0.00 0.00 0.00 0.00 0.00 0.00 0.00 0.00 0.00
0.00 0.00 0.00 0.00 0.00 0.00 0.00 0.00 0.02 0.05 0.11 0.13 0.18 0.23 0.45 1.30 0.80 0.71 0.68 0.86 0.93 0.80 0.67 0.52 0.52 0.42 0.31 0.21 0.19 0.12 0.04 0.00 0.00 0.00 0.00 0.00 0.00 0.00 0.00 0.00 0.00 0.00 0.00 0.00 0.00 0.00 0.00 0.00 0.00
0.00 0.00 0.00 0.00 0.00 0.00 0.00 0.01 0.03 0.06 0.08 0.07 0.08 0.29 0.56 0.93 0.80 0.78 0.77 1.45 1.96 1.76 1.44 1.10 1.04 0.48 0.54 0.43 0.23 0.08 0.01 0.00 0.00 0.00 0.00 0.00 0.00 0.00 0.00 0.00 0.00 0.00 0.00 0.00 0.00 0.00 0.00 0.00 0.00
0.00 0.00 0.00 0.00 0.00 0.00 0.00 0.01 0.06 0.17 0.42 0.40 0.11 0.39 0.75 0.59 0.47 0.81 1.34 1.96 2.32 2.63 2.44 1.64 2.14 1.33 0.89 0.62 0.20 0.05 0.00 0.00 0.00 0.00 0.00 0.00 0.00 0.00 0.00 0.00 0.00 0.00 0.00 0.00 0.00 0.00 0.00 0.00 0.00
0.00 0.00 0.00 0.00 0.00 0.00 0.01 0.06 0.15 0.25 0.28 0.19 0.16 0.53 0.88 0.64 0.53 0.99 1.30 2.34 3.34 2.18 2.18 2.32 2.98 3.16 1.50 0.68 0.23 0.01 0.00 0.00 0.00 0.00 0.00 0.00 0.00 0.00 0.00 0.00 0.00 0.00 0.00 0.00 0.00 0.00 0.00 0.00 0.00
0.00 0.00 0.00 0.00 0.00 0.01 0.11 0.16 0.19 0.18 0.11 0.23 0.41 0.88 1.01 0.63 0.77 0.91 1.76 3.51 4.91 5.59 5.14 4.50 3.87 2.90 1.45 0.47 0.17 0.01 0.00 0.00 0.00 0.00 0.00 0.00 0.00 0.00 0.00 0.00 0.00 0.00 0.00 0.00 0.00 0.00 0.00 0.00 0.00
0.00 0.00 0.00 0.00 0.00 0.07 0.19 0.23 0.15 0.09 0.17 0.53 0.24 0.70 0.66 0.99 0.81 0.69 1.08 2.29 3.72 7.11 7.51 6.94 6.19 4.08 1.66 0.61 0.22 0.00 0.00 0.00 0.00 0.00 0.00 0.00 0.00 0.00 0.00 0.00 0.00 0.00 0.00 0.00 0.00 0.00 0.00 0.00 0.00
0.00 0.00 0.00 0.00 0.01 0.15 0.23 0.08 0.24 0.13 0.11 0.26 0.30 0.49 0.56 0.79 0.48 0.58 0.60 1.25 2.03 3.63 3.96 3.92 3.64 3.13 1.81 0.70 0.22 0.01 0.00 0.00 0.00 0.00 0.00 0.00 0.00 0.00 0.00 0.00 0.00 0.00 0.00 0.00 0.00 0.00 0.00 0.00 0.00
0.00 0.00 0.00 0.00 0.06 0.24 0.13 0.03 0.19 0.09 0.18 0.52 0.38 0.69 0.61 0.38 0.41 0.52 0.53 0.49 0.86 1.24 1.93 2.03 1.74 1.06 0.61 0.25 0.18 0.11 0.05 0.00 0.00 0.00 0.00 0.00 0.00 0.00 0.00 0.00 0.00 0.00 0.00 0.00 0.00 0.00 0.00 0.00 0.00
0.00 0.00 0.00 0.02 0.11 0.04 0.02 0.07 0.10 0.32 0.42 0.50 1.13 0.47 0.39 0.47 0.54 0.66 0.90 0.43 0.27 0.43 0.66 0.84 1.03 0.87 0.51 0.17 0.08 0.12 0.07 0.01 0.00 0.00 0.00 0.00 0.01 0.01 0.00 0.00 0.01 0.00 0.00 0.00 0.00 0.00 0.00 0.00 0.00
0.00 0.00 0.00 0.01 0.01 0.01 0.00 0.01 0.11 0.33 0.74 0.29 0.32 0.38 0.46 0.74 0.61 0.27 0.19 0.16 0.11 0.16 0.46 0.43 0.43 0.40 0.27 0.15 0.13 0.10 0.08 0.03 0.06 0.02 0.00 0.01 0.02 0.00 0.00 0.00 0.00 0.00 0.00 0.00 0.00 0.00 0.00 0.00 0.00
0.00 0.00 0.00 0.01 0.04 0.03 0.00 0.04 0.12 0.30 0.11 0.11 0.16 0.38 0.54 0.55 0.15 0.06 0.07 0.06 0.06 0.12 0.18 0.39 0.35 0.19 0.12 0.08 0.12 0.16 0.12 0.10 0.11 0.05 0.05 0.03 0.01 0.00 0.00 0.00 0.00 0.00 0.00 0.00 0.00 0.00 0.00 0.00 0.00
0.00 0.00 0.00 0.00 0.01 0.01 0.02 0.05 0.09 0.39 0.12 0.12 0.12 0.32 0.56 0.56 0.08 0.04 0.04 0.04 0.03 0.06 0.13 0.17 0.25 0.28 0.21 0.11 0.07 0.14 0.20 0.25 0.27 0.19 0.15 0.13 0.08 0.05 0.04 0.01 0.00 0.01 0.01 0.00 0.00 0.00 0.00 0.00 0.00
0.00 0.00 0.02 0.03 0.01 0.00 0.05 0.19 0.35 0.13 0.08 0.07 0.03 0.04 0.36 0.86 0.23 0.04 0.02 0.04 0.02 0.04 0.08 0.20 0.25 0.28 0.22 0.22 0.26 0.41 0.38 0.23 0.12 0.20 0.33 0.27 0.13 0.07 0.03 0.02 0.02 0.01 0.00 0.00 0.00 0.00 0.00 0.00 0.00
0.00 0.00 0.01 0.04 0.03 0.02 0.15 0.48 0.05 0.03 0.05 0.04 0.01 0.01 0.06 0.10 0.02 0.01 0.01 0.00 0.00 0.01 0.03 0.13 0.33 0.41 0.42 0.46 0.47 0.82 0.56 0.23 0.15 0.22 0.21 0.12 0.07 0.05 0.02 0.03 0.02 0.00 0.00 0.00 0.00 0.00 0.00 0.00 0.00
0.00 0.00 0.00 0.01 0.01 0.01 0.05 0.33 0.12 0.05 0.09 0.08 0.02 0.01 0.01 0.01 0.01 0.00 0.03 0.01 0.04 0.02 0.04 0.11 0.35 0.71 0.81 0.63 0.89 0.57 0.13 0.07 0.07 0.13 0.14 0.11 0.05 0.08 0.02 0.07 0.07 0.00 0.00 0.00 0.00 0.00 0.00 0.00 0.00
0.00 0.00 0.00 0.02 0.02 0.00 0.01 0.03 0.25 0.12 0.05 0.27 0.09 0.04 0.04 0.00 0.01 0.03 0.07 0.07 0.07 0.05 0.10 0.37 0.48 0.77 0.78 0.46 0.31 0.12 0.08 0.11 0.11 0.11 0.16 0.13 0.02 0.02 0.04 0.09 0.03 0.00 0.00 0.00 0.00 0.00 0.00 0.00 0.00
0.00 0.00 0.00 0.00 0.01 0.00 0.00 0.01 0.01 0.00 0.00 0.03 0.05 0.07 0.02 0.00 0.03 0.05 0.07 0.09 0.07 0.08 0.18 0.39 0.47 0.62 0.37 0.13 0.05 0.05 0.10 0.13 0.11 0.14 0.20 0.18 0.06 0.07 0.12 0.11 0.02 0.00 0.00 0.00 0.00 0.00 0.00 0.00 0.00
0.00 0.00 0.00 0.00 0.00 0.00 0.00 0.00 0.00 0.00 0.00 0.01 0.01 0.11 0.03 0.00 0.01 0.02 0.04 0.03 0.04 0.11 0.36 0.43 0.23 0.15 0.07 0.02 0.01 0.04 0.07 0.07 0.04 0.06 0.10 0.09 0.09 0.08 0.08 0.06 0.06 0.02 0.00 0.00 0.00 0.00 0.00 0.00 0.00
0.00 0.00 0.00 0.00 0.00 0.00 0.00 0.00 0.00 0.01 0.01 0.01 0.00 0.00 0.00 0.00 0.02 0.03 0.03 0.03 0.01 0.02 0.18 0.18 0.06 0.05 0.08 0.02 0.02 0.03 0.09 0.13 0.07 0.04 0.10 0.07 0.08 0.06 0.12 0.03 0.02 0.07 0.01 0.00 0.00 0.00 0.00 0.00 0.00
0.00 0.00 0.00 0.00 0.00 0.00 0.00 0.00 0.00 0.00 0.01 0.00 0.00 0.00 0.00 0.00 0.00 0.00 0.00 0.00 0.01 0.06 0.25 0.11 0.10 0.10 0.11 0.09 0.06 0.06 0.13 0.14 0.13 0.10 0.05 0.07 0.04 0.06 0.16 0.04 0.02 0.04 0.02 0.00 0.00 0.00 0.01 0.00 0.00
0.00 0.00 0.00 0.00 0.00 0.04 0.02 0.00 0.03 0.05 0.01 0.00 0.00 0.00 0.00 0.00 0.00 0.00 0.00 0.00 0.02 0.07 0.20 0.15 0.12 0.20 0.14 0.25 0.27 0.21 0.21 0.20 0.19 0.10 0.07 0.07 0.06 0.08 0.17 0.06 0.04 0.03 0.02 0.01 0.01 0.01 0.01 0.00 0.00
0.00 0.00 0.00 0.00 0.00 0.01 0.01 0.01 0.01 0.01 0.01 0.01 0.00 0.00 0.00 0.00 0.00 0.00 0.00 0.01 0.03 0.11 0.17 0.29 0.31 0.21 0.19 0.34 0.41 0.26 0.21 0.17 0.27 0.26 0.13 0.15 0.12 0.13 0.23 0.12 0.04 0.04 0.03 0.02 0.01 0.00 0.01 0.01 0.01
0.00 0.00 0.00 0.05 0.00 0.00 0.00 0.01 0.01 0.01 0.04 0.08 0.10 0.00 0.00 0.00 0.00 0.00 0.02 0.04 0.04 0.08 0.13 0.18 0.32 0.41 0.27 0.25 0.23 0.21 0.18 0.21 0.16 0.16 0.20 0.23 0.19 0.17 0.15 0.11 0.05 0.05 0.03 0.02 0.01 0.01 0.02 0.03 0.01
0.00 0.00 0.01 0.15 0.09 0.03 0.06 0.01 0.01 0.00 0.00 0.00 0.00 0.00 0.00 0.00 0.00 0.00 0.01 0.02 0.05 0.11 0.08 0.06 0.29 0.41 0.48 0.33 0.16 0.14 0.08 0.06 0.07 0.13 0.18 0.13 0.11 0.09 0.09 0.07 0.06 0.05 0.05 0.03 0.01 0.03 0.04 0.01 0.01
0.00 0.00 0.00 0.03 0.09 0.05 0.06 0.01 0.00 0.00 0.00 0.00 0.00 0.00 0.00 0.00 0.00 0.00 0.00 0.01 0.04 0.07 0.05 0.09 0.09 0.27 0.37 0.24 0.12 0.06 0.03 0.04 0.06 0.08 0.07 0.06 0.05 0.05 0.05 0.04 0.05 0.06 0.04 0.01 0.02 0.03 0.01 0.01 0.01
0.00 0.00 0.00 0.00 0.03 0.05 0.00 0.01 0.01 0.01 0.00 0.00 0.00 0.00 0.00 0.00 0.00 0.00 0.01 0.06 0.02 0.02 0.02 0.09 0.07 0.08 0.15 0.24 0.23 0.07 0.07 0.07 0.08 0.09 0.14 0.11 0.08 0.07 0.05 0.04 0.03 0.02 0.02 0.04 0.03 0.01 0.00 0.00 0.00
0.00 0.00 0.00 0.00 0.00 0.01 0.02 0.00 0.00 0.00 0.00 0.00 0.00 0.00 0.00 0.00 0.00 0.00 0.01 0.04 0.05 0.10 0.07 0.04 0.11 0.33 0.24 0.19 0.11 0.10 0.13 0.14 0.20 0.14 0.16 0.12 0.06 0.03 0.02 0.01 0.01 0.02 0.02 0.01 0.01 0.02 0.00 0.01 0.03
0.00 0.01 0.04 0.01 0.00 0.00 0.02 0.00 0.00 0.00 0.00 0.00 0.00 0.00 0.00 0.00 0.00 0.00 0.00 0.00 0.01 0.02 0.01 0.01 0.04 0.15 0.22 0.20 0.15 0.32 0.54 0.43 0.41 0.20 0.11 0.08 0.04 0.02 0.02 0.02 0.01 0.01 0.00 0.01 0.02 0.02 0.02 0.04 0.07

GFSSGP_prec_precacc_048.txt.gz
Total_Precipitation_Accumulation
0.00 0.00 0.00 0.00 0.00 0.00 0.00 0.00 0.00 0.00 0.03 0.09 0.09 0.18 0.14 0.19 0.32 0.55 0.49 1.04 1.59 1.57 1.84 1.46 0.67 0.25 0.01 0.00 0.00 0.00 0.00 0.00 0.00 0.00 0.00 0.00 0.00 0.00 0.00 0.00 0.00 0.00 0.00 0.00 0.00 0.00 0.00 0.00 0.00
0.00 0.00 0.00 0.00 0.00 0.00 0.00 0.00 0.00 0.01 0.11 0.30 0.29 0.33 0.32 0.81 0.54 0.55 0.57 0.64 0.41 0.43 0.50 1.93 2.10 0.79 0.17 0.06 0.05 0.04 0.01 0.00 0.00 0.00 0.00 0.00 0.00 0.00 0.00 0.00 0.00 0.00 0.00 0.00 0.00 0.00 0.00 0.00 0.00
0.00 0.00 0.00 0.00 0.00 0.00 0.00 0.00 0.02 0.06 0.11 0.13 0.18 0.23 0.45 1.30 0.80 0.71 0.68 0.87 0.94 0.83 0.71 0.59 1.13 1.30 0.61 0.22 0.19 0.12 0.04 0.00 0.00 0.00 0.00 0.00 0.00 0.00 0.00 0.00 0.00 0.00 0.00 0.00 0.00 0.00 0.00 0.00 0.00
0.00 0.00 0.00 0.00 0.00 0.00 0.00 0.01 0.03 0.06 0.08 0.07 0.08 0.29 0.57 0.94 0.81 0.78 0.77 1.45 1.97 1.81 1.58 1.38 1.22 0.86 0.99 0.47 0.23 0.08 0.01 0.00 0.00 0.00 0.00 0.00 0.00 0.00 0.00 0.00 0.00 0.00 0.00 0.00 0.00 0.00 0.00 0.00 0.00
0.00 0.00 0.00 0.00 0.00 0.00 0.00 0.01 0.06 0.17 0.42 0.40 0.11 0.39 0.75 0.59 0.47 0.81 1.34 1.99 2.38 2.68 2.63 1.96 3.03 2.22 1.58 0.75 0.20 0.05 0.00 0.00 0.00 0.00 0.00 0.00 0.00 0.00 0.00 0.00 0.00 0.00 0.00 0.00 0.00 0.00 0.00 0.00 0.00
0.00 0.00 0.00 0.00 0.00 0.00 0.01 0.06 0.15 0.25 0.28 0.19 0.16 0.53 0.88 0.64 0.53 1.01 1.30 2.41 3.50 2.29 2.24 2.54 3.83 5.37 2.61 1.09 0.31 0.01 0.00 0.00 0.00 0.00 0.00 0.00 0.00 0.00 0.00 0.00 0.00 0.00 0.00 0.00 0.00 0.00 0.00 0.00 0.00
0.00 0.00 0.00 0.00 0.00 0.01 0.11 0.16 0.19 0.18 0.11 0.24 0.42 0.88 1.01 0.64 0.78 0.94 1.77 3.55 5.05 5.63 5.16 4.52 4.26 4.72 3.00 1.58 0.89 0.06 0.00 0.00 0.00 0.00 0.00 0.00 0.00 0.00 0.00 0.00 0.00 0.00 0.00 0.00 0.00 0.00 0.00 0.00 0.00
0.00 0.00 0.00 0.00 0.00 0.07 0.19 0.23 0.15 0.10 0.17 0.53 0.24 0.70 0.67 1.00 0.90 0.78 1.09 2.37 3.95 7.18 7.72 7.02 6.47 5.81 2.66 1.44 0.86 0.18 0.01 0.00 0.00 0.00 0.00 0.00 0.00 0.00 0.00 0.00 0.00 0.00 0.00 0.00 0.00 0.00 0.00 0.00 0.00
0.00 0.00 0.00 0.00 0.01 0.15 0.23 0.08 0.24 0.13 0.11 0.27 0.31 0.50 0.60 0.85 0.54 0.61 0.64 1.28 2.15 3.73 4.12 4.14 3.79 4.02 3.20 1.56 0.69 0.20 0.02 0.00 0.00 0.00 0.00 0.00 0.00 0.00 0.00 0.00 0.00 0.00 0.00 0.00 0.00 0.00 0.00 0.00 0.00
0.00 0.00 0.00 0.00 0.06 0.24 0.13 0.03 0.19 0.09 0.19 0.54 0.38 0.72 0.65 0.43 0.46 0.57 0.55 0.51 0.90 1.28 2.03 2.10 1.77 1.09 0.86 0.88 0.65 0.26 0.06 0.00 0.00 0.00 0.00 0.00 0.00 0.00 0.00 0.00 0.00 0.00 0.00 0.00 0.00 0.00 0.00 0.00 0.00
0.00 0.00 0.00 0.02 0.11 0.04 0.02 0.07 0.10 0.32 0.45 0.52 1.13 0.48 0.41 0.49 0.55 0.68 0.91 0.44 0.28 0.44 0.68 0.86 1.04 0.87 0.51 0.29 0.27 0.18 0.07 0.01 0.00 0.00 0.00 0.00 0.01 0.01 0.00 0.00 0.01 0.00 0.00 0.00 0.00 0.00 0.00 0.00 0.00
0.00 0.00 0.00 0.01 0.01 0.01 0.00 0.01 0.11 0.35 0.80 0.30 0.32 0.38 0.47 0.74 0.62 0.27 0.20 0.16 0.13 0.18 0.47 0.44 0.43 0.40 0.27 0.15 0.13 0.11 0.08 0.03 0.06 0.02 0.00 0.01 0.02 0.00 0.00 0.00 0.00 0.00 0.00 0.00 0.00 0.00 0.00 0.00 0.00
0.00 0.00 0.00 0.01 0.04 0.03 0.00 0.04 0.12 0.30 0.11 0.11 0.16 0.38 0.55 0.56 0.16 0.07 0.09 0.07 0.06 0.14 0.22 0.40 0.35 0.19 0.12 0.08 0.12 0.16 0.12 0.10 0.11 0.05 0.05 0.03 0.01 0.00 0.00 0.00 0.00 0.00 0.00 0.00 0.00 0.00 0.00 0.00 0.00
0.00 0.00 0.00 0.00 0.01 0.01 0.02 0.05 0.09 0.39 0.12 0.12 0.12 0.32 0.56 0.58 0.09 0.04 0.06 0.07 0.05 0.13 0.20 0.21 0.26 0.28 0.21 0.11 0.07 0.14 0.20 0.25 0.27 0.19 0.16 0.13 0.08 0.05 0.04 0.01 0.00 0.01 0.01 0.00 0.00 0.00 0.00 0.00 0.00
0.00 0.00 0.02 0.03 0.01 0.00 0.05 0.19 0.35 0.13 0.08 0.07 0.03 0.04 0.36 0.86 0.23 0.04 0.03 0.04 0.03 0.08 0.19 0.29 0.30 0.30 0.23 0.22 0.26 0.41 0.38 0.23 0.12 0.20 0.33 0.27 0.13 0.07 0.03 0.02 0.02 0.01 0.00 0.00 0.00 0.00 0.00 0.00 0.00
0.00 0.00 0.01 0.04 0.03 0.02 0.15 0.48 0.05 0.03 0.05 0.04 0.01 0.01 0.06 0.10 0.02 0.01 0.01 0.00 0.00 0.01 0.09 0.27 0.47 0.45 0.43 0.47 0.50 0.83 0.56 0.23 0.15 0.22 0.21 0.12 0.08 0.06 0.03 0.03 0.02 0.00 0.00 0.00 0.00 0.00 0.00 0.00 0.00
0.00 0.00 0.00 0.01 0.01 0.01 0.05 0.33 0.12 0.05 0.09 0.08 0.02 0.01 0.01 0.01 0.01 0.00 0.03 0.01 0.04 0.02 0.06 0.20 0.50 0.80 0.83 0.65 0.91 0.57 0.13 0.07 0.08 0.13 0.14 0.11 0.05 0.09 0.02 0.07 0.08 0.00 0.00 0.00 0.00 0.00 0.00 0.00 0.00
0.00 0.00 0.00 0.02 0.02 0.01 0.01 0.03 0.25 0.12 0.05 0.27 0.09 0.04 0.04 0.00 0.01 0.03 0.07 0.07 0.07 0.05 0.10 0.38 0.52 0.84 0.80 0.46 0.32 0.12 0.08 0.12 0.11 0.11 0.16 0.13 0.02 0.02 0.04 0.10 0.05 0.00 0.00 0.00 0.00 0.00 0.00 0.00 0.00
0.00 0.00 0.00 0.00 0.01 0.00 0.00 0.01 0.01 0.00 0.00 0.03 0.05 0.07 0.02 0.00 0.03 0.05 0.07 0.09 0.07 0.08 0.18 0.39 0.47 0.62 0.37 0.13 0.05 0.05 0.10 0.13 0.11 0.14 0.20 0.18 0.06 0.07 0.12 0.13 0.05 0.00 0.00 0.00 0.00 0.00 0.00 0.00 0.00
0.00 0.00 0.00 0.00 0.00 0.00 0.00 0.00 0.00 0.00 0.00 0.01 0.01 0.11 0.03 0.00 0.01 0.02 0.04 0.03 0.04 0.11 0.36 0.43 0.23 0.15 0.07 0.02 0.01 0.04 0.07 0.07 0.04 0.06 0.10 0.09 0.09 0.08 0.09 0.09 0.07 0.03 0.01 0.00 0.00 0.00 0.00 0.00 0.00
0.00 0.00 0.00 0.00 0.00 0.00 0.00 0.00 0.00 0.01 0.01 0.02 0.00 0.00 0.00 0.00 0.02 0.03 0.03 0.03 0.01 0.02 0.18 0.18 0.06 0.05 0.08 0.02 0.02 0.03 0.09 0.13 0.07 0.04 0.10 0.07 0.08 0.06 0.12 0.04 0.02 0.09 0.01 0.01 0.03 0.00 0.00 0.00 0.00
0.00 0.00 0.00 0.00 0.00 0.00 0.00 0.00 0.00 0.00 0.01 0.00 0.00 0.00 0.00 0.00 0.00 0.00 0.00 0.00 0.01 0.06 0.25 0.11 0.10 0.10 0.11 0.09 0.06 0.06 0.13 0.14 0.13 0.10 0.05 0.07 0.04 0.07 0.19 0.08 0.03 0.11 0.09 0.01 0.01 0.00 0.01 0.01 0.00
0.00 0.00 0.00 0.00 0.00 0.04 0.02 0.00 0.03 0.05 0.02 0.00 0.00 0.00 0.00 0.00 0.00 0.00 0.00 0.00 0.02 0.07 0.20 0.15 0.12 0.20 0.14 0.25 0.27 0.21 0.21 0.20 0.19 0.10 0.07 0.07 0.06 0.09 0.18 0.10 0.08 0.06 0.11 0.04 0.01 0.01 0.01 0.01 0.00
0.00 0.00 0.00 0.00 0.00 0.01 0.01 0.01 0.01 0.01 0.01 0.01 0.00 0.00 0.00 0.00 0.00 0.00 0.00 0.01 0.03 0.11 0.17 0.29 0.31 0.21 0.19 0.34 0.41 0.26 0.21 0.17 0.27 0.26 0.13 0.15 0.12 0.16 0.30 0.28 0.16 0.08 0.07 0.06 0.02 0.01 0.01 0.01 0.01
0.00 0.00 0.00 0.05 0.00 0.00 0.00 0.01 0.01 0.01 0.04 0.08 0.10 0.00 0.00 0.00 0.00 0.00 0.02 0.04 0.04 0.08 0.13 0.18 0.32 0.41 0.27 0.25 0.23 0.21 0.18 0.21 0.16 0.16 0.20 0.23 0.19 0.22 0.24 0.24 0.13 0.08 0.07 0.04 0.03 0.02 0.02 0.03 0.05
0.00 0.00 0.01 0.15 0.09 0.03 0.06 0.01 0.01 0.00 0.00 0.00 0.00 0.00 0.00 0.00 0.00 0.00 0.01 0.02 0.05 0.11 0.08 0.06 0.29 0.41 0.48 0.33 0.16 0.14 0.08 0.06 0.07 0.14 0.19 0.13 0.12 0.10 0.14 0.10 0.09 0.07 0.09 0.06 0.03 0.04 0.04 0.01 0.01
0.00 0.00 0.00 0.03 0.09 0.05 0.06 0.01 0.00 0.00 0.00 0.00 0.00 0.00 0.00 0.00 0.00 0.00 0.00 0.01 0.04 0.07 0.05 0.09 0.10 0.27 0.37 0.24 0.12 0.06 0.03 0.04 0.07 0.09 0.08 0.07 0.06 0.09 0.08 0.05 0.06 0.06 0.05 0.02 0.03 0.03 0.01 0.01 0.01
0.00 0.00 0.00 0.00 0.03 0.05 0.00 0.01 0.01 0.01 0.00 0.00 0.00 0.00 0.00 0.00 0.00 0.00 0.01 0.06 0.02 0.03 0.02 0.11 0.10 0.10 0.22 0.27 0.23 0.07 0.07 0.09 0.11 0.11 0.17 0.15 0.10 0.08 0.07 0.05 0.03 0.02 0.02 0.04 0.03 0.01 0.00 0.00 0.01
0.00 0.00 0.00 0.00 0.00 0.01 0.02 0.00 0.00 0.00 0.00 0.00 0.00 0.00 0.00 0.00 0.00 0.00 0.01 0.04 0.05 0.10 0.07 0.05 0.12 0.35 0.31 0.27 0.14 0.10 0.13 0.26 0.35 0.22 0.25 0.24 0.15 0.10 0.08 0.03 0.01 0.02 0.03 0.02 0.01 0.02 0.01 0.02 0.03
0.00 0.01 0.04 0.01 0.00 0.00 0.02 0.00 0.00 0.00 0.00 0.00 0.00 0.00 0.00 0.00 0.00 0.00 0.00 0.00 0.02 0.02 0.01 0.01 0.05 0.16 0.24 0.24 0.16 0.33 0.58 0.54 0.67 0.60 0.54 0.37 0.16 0.11 0.09 0.05 0.03 0.02 0.01 0.02 0.02 0.02 0.02 0.04 0.07